Darstellungsparameter: Aktuell verwendete Einstellungen:
Skalierung der Graphiken ... ?
xyx+y,   Skalierungsfaktor:      Skalierung: Modus: x, Faktor: 1
Darstellungszeitraum ... ?
Vom - - bis: - -   Zeitraum: 09.08.2020 - 13.08.2020
Min/Max/Avg-Anzeige ... ?
Zeige MMA aktuell
Zeige MMA Monat
Zeige MMA alles
Zeige --A aktuell
Zeige --A Monat
Zeige --A alles
Keine MMA-Anzeige
MMA:
Minimum Maximum Average (ber die Originaldaten)
MMA-Basis: 09.08.2020 - 13.08.2020
Quicknavigation für Darstellung... ?
Tage:      1T, 2T, 3T, 5T -1T -2T -3T -5T +1T +2T +3T +5T
Wochen: 1W, 2W, 3W -1W -2W -3W +1W +2W +3W
Monate: 1M, 3M, 6M -1M -3M -6M +1M +3M +6M
Jahre:    1J, 3J, 5J, 10J -1J -3J -5J -10J +1J +3J +5J +10J
Nutze für die Darstellung ... ?
Originaldaten oder Mittelwerte auf ...
Stundenbasis Tagesbasis Wochenbasis
Monatsbasis Jahresbasis      Datenbasis: Original-Daten
Darstellen als:
Statistik (Auto) Statistik J:M      Darstellung:
Zur Graphik,    zurück zur Übersicht aller Sensoren.
 
Tabellarische Datenbersicht: ?
 
Sensor: Nr:Datum:Temp:Feuchte:Taupunkt:
Aussen-T/F 1 09-08-2020 00:00:00 23.6 C 64 % 16.39 C
2 09-08-2020 00:05:00 23.4 C 65 % 16.45 C
3 09-08-2020 00:10:00 23.3 C 64 % 16.11 C
4 09-08-2020 00:15:00 23.2 C 65 % 16.26 C
5 09-08-2020 00:20:00 23.1 C 64 % 15.92 C
6 09-08-2020 00:25:00 23.1 C 65 % 16.16 C
7 09-08-2020 00:30:00 22.9 C 65 % 15.97 C
8 09-08-2020 00:35:00 22.8 C 66 % 16.12 C
9 09-08-2020 00:40:00 22.8 C 66 % 16.12 C
10 09-08-2020 00:45:00 22.7 C 66 % 16.02 C
11 09-08-2020 00:50:00 22.7 C 65 % 15.78 C
12 09-08-2020 00:55:00 22.6 C 66 % 15.93 C
13 09-08-2020 01:00:00 22.6 C 67 % 16.16 C
14 09-08-2020 01:05:00 22.4 C 68 % 16.2 C
15 09-08-2020 01:10:00 22.3 C 67 % 15.88 C
16 09-08-2020 01:15:00 22.2 C 68 % 16.01 C
17 09-08-2020 01:20:00 22.2 C 68 % 16.01 C
18 09-08-2020 01:25:00 22.1 C 68 % 15.92 C
19 09-08-2020 01:30:00 22.1 C 69 % 16.15 C
20 09-08-2020 01:35:00 21.9 C 69 % 15.96 C
21 09-08-2020 01:40:00 21.7 C 69 % 15.77 C
22 09-08-2020 01:45:00 21.6 C 70 % 15.89 C
23 09-08-2020 01:50:00 21.5 C 70 % 15.8 C
24 09-08-2020 01:55:00 21.4 C 70 % 15.7 C
25 09-08-2020 02:00:00 21.4 C 71 % 15.93 C
Sensor: Nr:Datum:Temp:Feuchte:Taupunkt:
Aussen-T/F 26 09-08-2020 02:05:00 21.3 C 70 % 15.61 C
27 09-08-2020 02:10:00 21.2 C 71 % 15.73 C
28 09-08-2020 02:15:00 21.1 C 71 % 15.64 C
29 09-08-2020 02:20:00 21 C 72 % 15.76 C
30 09-08-2020 02:25:00 20.9 C 72 % 15.66 C
31 09-08-2020 02:30:00 20.8 C 73 % 15.78 C
32 09-08-2020 02:35:00 20.7 C 73 % 15.69 C
33 09-08-2020 02:40:00 20.7 C 73 % 15.69 C
34 09-08-2020 02:45:00 20.6 C 73 % 15.59 C
35 09-08-2020 02:50:00 20.4 C 73 % 15.4 C
36 09-08-2020 02:55:00 20.4 C 73 % 15.4 C
37 09-08-2020 03:00:00 20.3 C 73 % 15.3 C
38 09-08-2020 03:05:00 20.3 C 73 % 15.3 C
39 09-08-2020 03:10:00 20.2 C 74 % 15.42 C
40 09-08-2020 03:15:00 20.1 C 74 % 15.32 C
41 09-08-2020 03:20:00 20 C 74 % 15.23 C
42 09-08-2020 03:25:00 19.9 C 75 % 15.34 C
43 09-08-2020 03:30:00 19.8 C 75 % 15.24 C
44 09-08-2020 03:35:00 19.8 C 76 % 15.45 C
45 09-08-2020 03:40:00 19.7 C 76 % 15.35 C
46 09-08-2020 03:45:00 19.7 C 76 % 15.35 C
47 09-08-2020 03:50:00 19.7 C 76 % 15.35 C
48 09-08-2020 03:55:00 19.6 C 77 % 15.46 C
49 09-08-2020 04:00:00 19.6 C 76 % 15.26 C
50 09-08-2020 04:05:00 19.6 C 77 % 15.46 C
Sensor: Nr:Datum:Temp:Feuchte:Taupunkt:
Aussen-T/F 51 09-08-2020 04:10:00 19.5 C 77 % 15.36 C
52 09-08-2020 04:15:00 19.4 C 77 % 15.27 C
53 09-08-2020 04:20:00 19.4 C 77 % 15.27 C
54 09-08-2020 04:25:00 19.4 C 77 % 15.27 C
55 09-08-2020 04:30:00 19.4 C 77 % 15.27 C
56 09-08-2020 04:35:00 19.3 C 77 % 15.17 C
57 09-08-2020 04:40:00 19.3 C 77 % 15.17 C
58 09-08-2020 04:45:00 19.2 C 78 % 15.27 C
59 09-08-2020 04:50:00 19.2 C 78 % 15.27 C
60 09-08-2020 04:55:00 19.2 C 78 % 15.27 C
61 09-08-2020 05:00:00 19.2 C 78 % 15.27 C
62 09-08-2020 05:05:00 19.1 C 78 % 15.18 C
63 09-08-2020 05:10:00 18.9 C 79 % 15.18 C
64 09-08-2020 05:15:00 18.9 C 79 % 15.18 C
65 09-08-2020 05:20:00 18.8 C 79 % 15.08 C
66 09-08-2020 05:25:00 18.7 C 79 % 14.99 C
67 09-08-2020 05:30:00 18.7 C 80 % 15.18 C
68 09-08-2020 05:35:00 18.6 C 80 % 15.08 C
69 09-08-2020 05:40:00 18.6 C 80 % 15.08 C
70 09-08-2020 05:45:00 18.6 C 81 % 15.28 C
71 09-08-2020 05:50:00 18.6 C 80 % 15.08 C
72 09-08-2020 05:55:00 18.6 C 80 % 15.08 C
73 09-08-2020 06:00:00 18.6 C 80 % 15.08 C
74 09-08-2020 06:05:00 18.4 C 80 % 14.89 C
75 09-08-2020 06:10:00 18.4 C 81 % 15.08 C
Sensor: Nr:Datum:Temp:Feuchte:Taupunkt:
Aussen-T/F 76 09-08-2020 06:15:00 18.4 C 81 % 15.08 C
77 09-08-2020 06:20:00 18.4 C 81 % 15.08 C
78 09-08-2020 06:25:00 18.4 C 81 % 15.08 C
79 09-08-2020 06:30:00 18.5 C 81 % 15.18 C
80 09-08-2020 06:35:00 18.6 C 81 % 15.28 C
81 09-08-2020 06:40:00 18.6 C 81 % 15.28 C
82 09-08-2020 06:45:00 18.7 C 82 % 15.57 C
83 09-08-2020 06:50:00 18.7 C 82 % 15.57 C
84 09-08-2020 06:55:00 18.8 C 82 % 15.66 C
85 09-08-2020 07:00:00 18.8 C 82 % 15.66 C
86 09-08-2020 07:05:00 18.9 C 82 % 15.76 C
87 09-08-2020 07:10:00 18.9 C 82 % 15.76 C
88 09-08-2020 07:15:00 18.9 C 82 % 15.76 C
89 09-08-2020 07:20:00 18.9 C 82 % 15.76 C
90 09-08-2020 07:25:00 18.9 C 82 % 15.76 C
91 09-08-2020 07:30:00 18.9 C 82 % 15.76 C
92 09-08-2020 07:35:00 19 C 83 % 16.05 C
93 09-08-2020 07:40:00 19 C 82 % 15.86 C
94 09-08-2020 07:45:00 19.1 C 83 % 16.15 C
95 09-08-2020 07:50:00 19.1 C 83 % 16.15 C
96 09-08-2020 07:55:00 19.2 C 82 % 16.05 C
97 09-08-2020 08:00:00 19.2 C 83 % 16.24 C
98 09-08-2020 08:05:00 19.3 C 83 % 16.34 C
99 09-08-2020 08:10:00 19.4 C 82 % 16.25 C
100 09-08-2020 08:15:00 19.5 C 82 % 16.35 C
Sensor: Nr:Datum:Temp:Feuchte:Taupunkt:
Aussen-T/F 101 09-08-2020 08:20:00 19.6 C 82 % 16.44 C
102 09-08-2020 08:25:00 19.7 C 81 % 16.35 C
103 09-08-2020 08:30:00 19.8 C 81 % 16.45 C
104 09-08-2020 08:35:00 19.9 C 81 % 16.54 C
105 09-08-2020 08:40:00 20 C 81 % 16.64 C
106 09-08-2020 08:45:00 20.1 C 81 % 16.74 C
107 09-08-2020 08:50:00 20.3 C 80 % 16.74 C
108 09-08-2020 08:55:00 20.4 C 81 % 17.03 C
109 09-08-2020 09:00:00 20.6 C 81 % 17.22 C
110 09-08-2020 09:05:00 20.7 C 81 % 17.32 C
111 09-08-2020 09:10:00 20.8 C 81 % 17.42 C
112 09-08-2020 09:15:00 20.9 C 80 % 17.32 C
113 09-08-2020 09:20:00 21.1 C 80 % 17.51 C
114 09-08-2020 09:25:00 21.2 C 80 % 17.61 C
115 09-08-2020 09:30:00 21.3 C 79 % 17.51 C
116 09-08-2020 09:35:00 21.6 C 78 % 17.6 C
117 09-08-2020 09:40:00 21.8 C 78 % 17.79 C
118 09-08-2020 09:45:00 21.9 C 77 % 17.68 C
119 09-08-2020 09:50:00 22.2 C 75 % 17.56 C
120 09-08-2020 09:55:00 22.4 C 74 % 17.54 C
121 09-08-2020 10:00:00 22.7 C 72 % 17.39 C
122 09-08-2020 10:05:00 22.9 C 72 % 17.58 C
123 09-08-2020 10:10:00 23.2 C 70 % 17.42 C
124 09-08-2020 10:15:00 23.4 C 69 % 17.39 C
125 09-08-2020 10:20:00 23.7 C 68 % 17.44 C
Sensor: Nr:Datum:Temp:Feuchte:Taupunkt:
Aussen-T/F 126 09-08-2020 10:25:00 23.9 C 67 % 17.4 C
127 09-08-2020 10:30:00 24.2 C 65 % 17.2 C
128 09-08-2020 10:35:00 24.5 C 66 % 17.73 C
129 09-08-2020 10:40:00 24.8 C 66 % 18.01 C
130 09-08-2020 10:45:00 25.2 C 65 % 18.15 C
131 09-08-2020 10:50:00 25.4 C 63 % 17.84 C
132 09-08-2020 10:55:00 25.8 C 63 % 18.22 C
133 09-08-2020 11:00:00 26.1 C 61 % 17.99 C
134 09-08-2020 11:05:00 26.4 C 59 % 17.74 C
135 09-08-2020 11:10:00 26.8 C 59 % 18.11 C
136 09-08-2020 11:15:00 27.2 C 58 % 18.22 C
137 09-08-2020 11:20:00 27.7 C 57 % 18.41 C
138 09-08-2020 11:25:00 28.1 C 55 % 18.21 C
139 09-08-2020 11:30:00 28.4 C 54 % 18.19 C
140 09-08-2020 11:35:00 28.8 C 50 % 17.34 C
141 09-08-2020 11:40:00 29.3 C 48 % 17.15 C
142 09-08-2020 11:45:00 29.7 C 48 % 17.51 C
143 09-08-2020 11:50:00 30.1 C 46 % 17.2 C
144 09-08-2020 11:55:00 30.4 C 46 % 17.48 C
145 09-08-2020 12:00:00 30.7 C 44 % 17.04 C
146 09-08-2020 12:05:00 30.9 C 43 % 16.86 C
147 09-08-2020 12:10:00 31.3 C 42 % 16.85 C
148 09-08-2020 12:15:00 31.6 C 43 % 17.49 C
149 09-08-2020 12:20:00 31.8 C 41 % 16.92 C
150 09-08-2020 12:25:00 31.9 C 40 % 16.62 C
Sensor: Nr:Datum:Temp:Feuchte:Taupunkt:
Aussen-T/F 151 09-08-2020 12:30:00 32.2 C 39 % 16.48 C
152 09-08-2020 12:35:00 32.4 C 40 % 17.06 C
153 09-08-2020 12:40:00 32.6 C 39 % 16.84 C
154 09-08-2020 12:45:00 32.8 C 38 % 16.61 C
155 09-08-2020 12:50:00 32.9 C 38 % 16.7 C
156 09-08-2020 12:55:00 33.1 C 38 % 16.87 C
157 09-08-2020 13:00:00 33.2 C 36 % 16.11 C
158 09-08-2020 13:05:00 33.3 C 35 % 15.76 C
159 09-08-2020 13:10:00 33.4 C 36 % 16.29 C
160 09-08-2020 13:15:00 33.6 C 36 % 16.46 C
161 09-08-2020 13:20:00 33.5 C 35 % 15.93 C
162 09-08-2020 13:25:00 33.6 C 35 % 16.02 C
163 09-08-2020 13:30:00 33.6 C 36 % 16.46 C
164 09-08-2020 13:35:00 33.6 C 35 % 16.02 C
165 09-08-2020 13:40:00 33.6 C 35 % 16.02 C
166 09-08-2020 13:45:00 33.7 C 35 % 16.11 C
167 09-08-2020 13:50:00 33.8 C 34 % 15.74 C
168 09-08-2020 13:55:00 33.9 C 35 % 16.28 C
169 09-08-2020 14:00:00 34.2 C 34 % 16.09 C
170 09-08-2020 14:05:00 34.5 C 34 % 16.35 C
171 09-08-2020 14:10:00 34.7 C 33 % 16.06 C
172 09-08-2020 14:15:00 34.7 C 34 % 16.53 C
173 09-08-2020 14:20:00 34.8 C 34 % 16.61 C
174 09-08-2020 14:25:00 34.8 C 32 % 15.66 C
175 09-08-2020 14:30:00 34.7 C 33 % 16.06 C
Sensor: Nr:Datum:Temp:Feuchte:Taupunkt:
Aussen-T/F 176 09-08-2020 14:35:00 34.7 C 33 % 16.06 C
177 09-08-2020 14:40:00 34.4 C 34 % 16.26 C
178 09-08-2020 14:45:00 34.3 C 35 % 16.63 C
179 09-08-2020 14:50:00 34.1 C 37 % 17.33 C
180 09-08-2020 14:55:00 33.7 C 37 % 16.98 C
181 09-08-2020 15:00:00 33.3 C 38 % 17.05 C
182 09-08-2020 15:05:00 33.1 C 41 % 18.08 C
183 09-08-2020 15:10:00 32.8 C 51 % 21.32 C
184 09-08-2020 15:15:00 32.3 C 55 % 22.1 C
185 09-08-2020 15:20:00 31.7 C 55 % 21.54 C
186 09-08-2020 15:25:00 31.1 C 57 % 21.57 C
187 09-08-2020 15:30:00 30.7 C 58 % 21.48 C
188 09-08-2020 15:35:00 30.3 C 56 % 20.54 C
189 09-08-2020 15:40:00 30.1 C 47 % 17.54 C
190 09-08-2020 15:45:00 30.1 C 48 % 17.88 C
191 09-08-2020 15:50:00 29.9 C 49 % 18.02 C
192 09-08-2020 15:55:00 29.6 C 49 % 17.75 C
193 09-08-2020 16:00:00 29.3 C 51 % 18.11 C
194 09-08-2020 16:05:00 29.2 C 49 % 17.39 C
195 09-08-2020 16:10:00 29 C 50 % 17.52 C
196 09-08-2020 16:15:00 28.9 C 50 % 17.43 C
197 09-08-2020 16:20:00 28.8 C 51 % 17.65 C
198 09-08-2020 16:25:00 28.8 C 50 % 17.34 C
199 09-08-2020 16:30:00 28.8 C 51 % 17.65 C
200 09-08-2020 16:35:00 28.7 C 50 % 17.25 C
Sensor: Nr:Datum:Temp:Feuchte:Taupunkt:
Aussen-T/F 201 09-08-2020 16:40:00 28.7 C 51 % 17.56 C
202 09-08-2020 16:45:00 28.7 C 51 % 17.56 C
203 09-08-2020 16:50:00 28.7 C 51 % 17.56 C
204 09-08-2020 16:55:00 28.6 C 51 % 17.47 C
205 09-08-2020 17:00:00 28.4 C 51 % 17.29 C
206 09-08-2020 17:05:00 28.4 C 54 % 18.19 C
207 09-08-2020 17:10:00 28.3 C 55 % 18.39 C
208 09-08-2020 17:15:00 28.3 C 54 % 18.1 C
209 09-08-2020 17:20:00 28.2 C 53 % 17.71 C
210 09-08-2020 17:25:00 28.1 C 57 % 18.78 C
211 09-08-2020 17:30:00 27.9 C 52 % 17.13 C
212 09-08-2020 17:35:00 27.8 C 52 % 17.04 C
213 09-08-2020 17:40:00 27.8 C 52 % 17.04 C
214 09-08-2020 17:45:00 27.7 C 52 % 16.95 C
215 09-08-2020 17:50:00 27.7 C 54 % 17.55 C
216 09-08-2020 17:55:00 27.7 C 54 % 17.55 C
217 09-08-2020 18:00:00 27.6 C 55 % 17.74 C
218 09-08-2020 18:05:00 27.6 C 52 % 16.86 C
219 09-08-2020 18:10:00 27.6 C 54 % 17.45 C
220 09-08-2020 18:15:00 27.6 C 54 % 17.45 C
221 09-08-2020 18:20:00 27.6 C 54 % 17.45 C
222 09-08-2020 18:25:00 27.6 C 55 % 17.74 C
223 09-08-2020 18:30:00 27.5 C 54 % 17.36 C
224 09-08-2020 18:35:00 27.4 C 53 % 16.97 C
225 09-08-2020 18:40:00 27.4 C 54 % 17.27 C
Sensor: Nr:Datum:Temp:Feuchte:Taupunkt:
Aussen-T/F 226 09-08-2020 18:45:00 27.4 C 54 % 17.27 C
227 09-08-2020 18:50:00 27.4 C 56 % 17.84 C
228 09-08-2020 18:55:00 27.4 C 57 % 18.13 C
229 09-08-2020 19:00:00 27.3 C 57 % 18.03 C
230 09-08-2020 19:05:00 27.3 C 59 % 18.58 C
231 09-08-2020 19:10:00 27.3 C 59 % 18.58 C
232 09-08-2020 19:15:00 27.2 C 60 % 18.76 C
233 09-08-2020 19:20:00 27.1 C 59 % 18.4 C
234 09-08-2020 19:25:00 27.1 C 59 % 18.4 C
235 09-08-2020 19:30:00 27 C 62 % 19.1 C
236 09-08-2020 19:35:00 26.9 C 63 % 19.26 C
237 09-08-2020 19:40:00 26.7 C 65 % 19.57 C
238 09-08-2020 19:45:00 26.5 C 65 % 19.38 C
239 09-08-2020 19:50:00 26.3 C 66 % 19.44 C
240 09-08-2020 19:55:00 25.9 C 66 % 19.06 C
241 09-08-2020 20:00:00 25.4 C 67 % 18.82 C
242 09-08-2020 20:05:00 25.1 C 67 % 18.54 C
243 09-08-2020 20:10:00 24.9 C 67 % 18.35 C
244 09-08-2020 20:15:00 24.8 C 68 % 18.49 C
245 09-08-2020 20:20:00 24.8 C 67 % 18.25 C
246 09-08-2020 20:25:00 24.8 C 67 % 18.25 C
247 09-08-2020 20:30:00 24.7 C 69 % 18.63 C
248 09-08-2020 20:35:00 24.6 C 70 % 18.76 C
249 09-08-2020 20:40:00 24.4 C 70 % 18.57 C
250 09-08-2020 20:45:00 24.3 C 76 % 19.8 C
Sensor: Nr:Datum:Temp:Feuchte:Taupunkt:
Aussen-T/F 251 09-08-2020 20:50:00 24 C 79 % 20.13 C
252 09-08-2020 20:55:00 23.4 C 79 % 19.55 C
253 09-08-2020 21:00:00 22.8 C 82 % 19.56 C
254 09-08-2020 21:05:00 22.3 C 82 % 19.08 C
255 09-08-2020 21:10:00 21.8 C 83 % 18.78 C
256 09-08-2020 21:15:00 21.4 C 84 % 18.58 C
257 09-08-2020 21:20:00 21.1 C 86 % 18.67 C
258 09-08-2020 21:25:00 20.9 C 86 % 18.47 C
259 09-08-2020 21:30:00 20.7 C 87 % 18.46 C
260 09-08-2020 21:35:00 20.6 C 88 % 18.54 C
261 09-08-2020 21:40:00 20.5 C 89 % 18.62 C
262 09-08-2020 21:45:00 20.5 C 89 % 18.62 C
263 09-08-2020 21:50:00 20.4 C 90 % 18.7 C
264 09-08-2020 21:55:00 20.4 C 90 % 18.7 C
265 09-08-2020 22:00:00 20.4 C 90 % 18.7 C
266 09-08-2020 22:05:00 20.5 C 91 % 18.98 C
267 09-08-2020 22:10:00 20.6 C 91 % 19.08 C
268 09-08-2020 22:15:00 20.6 C 91 % 19.08 C
269 09-08-2020 22:20:00 20.7 C 91 % 19.18 C
270 09-08-2020 22:25:00 20.7 C 91 % 19.18 C
271 09-08-2020 22:30:00 20.7 C 91 % 19.18 C
272 09-08-2020 22:35:00 20.7 C 91 % 19.18 C
273 09-08-2020 22:40:00 20.7 C 91 % 19.18 C
274 09-08-2020 22:45:00 20.8 C 91 % 19.28 C
275 09-08-2020 22:50:00 20.8 C 91 % 19.28 C
Sensor: Nr:Datum:Temp:Feuchte:Taupunkt:
Aussen-T/F 276 09-08-2020 22:55:00 20.8 C 90 % 19.1 C
277 09-08-2020 23:00:00 20.8 C 90 % 19.1 C
278 09-08-2020 23:05:00 20.8 C 90 % 19.1 C
279 09-08-2020 23:10:00 20.8 C 90 % 19.1 C
280 09-08-2020 23:15:00 20.8 C 90 % 19.1 C
281 09-08-2020 23:20:00 20.7 C 90 % 19 C
282 09-08-2020 23:25:00 20.7 C 90 % 19 C
283 09-08-2020 23:30:00 20.7 C 90 % 19 C
284 09-08-2020 23:35:00 20.6 C 89 % 18.72 C
285 09-08-2020 23:40:00 20.6 C 90 % 18.9 C
286 09-08-2020 23:45:00 20.6 C 90 % 18.9 C
287 09-08-2020 23:50:00 20.5 C 89 % 18.62 C
288 09-08-2020 23:55:00 20.4 C 89 % 18.53 C
289 10-08-2020 00:00:00 20.3 C 89 % 18.43 C
290 10-08-2020 00:05:00 20.2 C 89 % 18.33 C
291 10-08-2020 00:10:00 20.1 C 89 % 18.23 C
292 10-08-2020 00:15:00 19.9 C 89 % 18.03 C
293 10-08-2020 00:20:00 19.8 C 89 % 17.93 C
294 10-08-2020 00:25:00 19.7 C 89 % 17.84 C
295 10-08-2020 00:30:00 19.6 C 89 % 17.74 C
296 10-08-2020 00:35:00 19.6 C 90 % 17.91 C
297 10-08-2020 00:40:00 19.5 C 90 % 17.82 C
298 10-08-2020 00:45:00 19.4 C 90 % 17.72 C
299 10-08-2020 00:50:00 19.4 C 90 % 17.72 C
300 10-08-2020 00:55:00 19.4 C 90 % 17.72 C
Sensor: Nr:Datum:Temp:Feuchte:Taupunkt:
Aussen-T/F 301 10-08-2020 01:00:00 19.3 C 90 % 17.62 C
302 10-08-2020 01:05:00 19.3 C 91 % 17.79 C
303 10-08-2020 01:10:00 19.4 C 91 % 17.89 C
304 10-08-2020 01:15:00 19.8 C 92 % 18.46 C
305 10-08-2020 01:20:00 20 C 91 % 18.49 C
306 10-08-2020 01:25:00 20.1 C 91 % 18.58 C
307 10-08-2020 01:30:00 20.1 C 90 % 18.41 C
308 10-08-2020 01:35:00 20.2 C 90 % 18.51 C
309 10-08-2020 01:40:00 20.2 C 90 % 18.51 C
310 10-08-2020 01:45:00 20.3 C 89 % 18.43 C
311 10-08-2020 01:50:00 20.3 C 89 % 18.43 C
312 10-08-2020 01:55:00 20.3 C 89 % 18.43 C
313 10-08-2020 02:00:00 20.4 C 88 % 18.34 C
314 10-08-2020 02:05:00 20.5 C 88 % 18.44 C
315 10-08-2020 02:10:00 20.6 C 88 % 18.54 C
316 10-08-2020 02:15:00 20.6 C 87 % 18.36 C
317 10-08-2020 02:20:00 20.6 C 87 % 18.36 C
318 10-08-2020 02:25:00 20.7 C 87 % 18.46 C
319 10-08-2020 02:30:00 20.7 C 87 % 18.46 C
320 10-08-2020 02:35:00 20.7 C 87 % 18.46 C
321 10-08-2020 02:40:00 20.7 C 87 % 18.46 C
322 10-08-2020 02:45:00 20.7 C 87 % 18.46 C
323 10-08-2020 02:50:00 20.6 C 87 % 18.36 C
324 10-08-2020 02:55:00 20.6 C 87 % 18.36 C
325 10-08-2020 03:00:00 20.5 C 88 % 18.44 C
Sensor: Nr:Datum:Temp:Feuchte:Taupunkt:
Aussen-T/F 326 10-08-2020 03:05:00 20.4 C 88 % 18.34 C
327 10-08-2020 03:10:00 20.4 C 88 % 18.34 C
328 10-08-2020 03:15:00 20.3 C 87 % 18.06 C
329 10-08-2020 03:20:00 20.2 C 88 % 18.15 C
330 10-08-2020 03:25:00 20.2 C 88 % 18.15 C
331 10-08-2020 03:30:00 20.1 C 88 % 18.05 C
332 10-08-2020 03:35:00 20.1 C 89 % 18.23 C
333 10-08-2020 03:40:00 20.1 C 89 % 18.23 C
334 10-08-2020 03:45:00 20.1 C 89 % 18.23 C
335 10-08-2020 03:50:00 20 C 88 % 17.95 C
336 10-08-2020 03:55:00 19.9 C 88 % 17.85 C
337 10-08-2020 04:00:00 19.8 C 88 % 17.75 C
338 10-08-2020 04:05:00 19.7 C 89 % 17.84 C
339 10-08-2020 04:10:00 19.6 C 89 % 17.74 C
340 10-08-2020 04:15:00 19.5 C 89 % 17.64 C
341 10-08-2020 04:20:00 19.4 C 89 % 17.54 C
342 10-08-2020 04:25:00 19.4 C 90 % 17.72 C
343 10-08-2020 04:30:00 19.4 C 90 % 17.72 C
344 10-08-2020 04:35:00 19.4 C 90 % 17.72 C
345 10-08-2020 04:40:00 19.6 C 90 % 17.91 C
346 10-08-2020 04:45:00 19.6 C 90 % 17.91 C
347 10-08-2020 04:50:00 19.6 C 90 % 17.91 C
348 10-08-2020 04:55:00 19.6 C 90 % 17.91 C
349 10-08-2020 05:00:00 19.6 C 90 % 17.91 C
350 10-08-2020 05:05:00 19.7 C 90 % 18.01 C
Sensor: Nr:Datum:Temp:Feuchte:Taupunkt:
Aussen-T/F 351 10-08-2020 05:10:00 19.8 C 90 % 18.11 C
352 10-08-2020 05:15:00 19.8 C 90 % 18.11 C
353 10-08-2020 05:20:00 19.9 C 90 % 18.21 C
354 10-08-2020 05:25:00 19.9 C 90 % 18.21 C
355 10-08-2020 05:30:00 19.9 C 90 % 18.21 C
356 10-08-2020 05:35:00 19.9 C 90 % 18.21 C
357 10-08-2020 05:40:00 19.8 C 90 % 18.11 C
358 10-08-2020 05:45:00 19.8 C 90 % 18.11 C
359 10-08-2020 05:50:00 19.8 C 90 % 18.11 C
360 10-08-2020 05:55:00 19.8 C 90 % 18.11 C
361 10-08-2020 06:00:00 19.7 C 90 % 18.01 C
362 10-08-2020 06:05:00 19.7 C 89 % 17.84 C
363 10-08-2020 06:10:00 19.6 C 89 % 17.74 C
364 10-08-2020 06:15:00 19.5 C 90 % 17.82 C
365 10-08-2020 06:20:00 19.4 C 90 % 17.72 C
366 10-08-2020 06:25:00 19.3 C 90 % 17.62 C
367 10-08-2020 06:30:00 19.3 C 90 % 17.62 C
368 10-08-2020 06:35:00 19.3 C 90 % 17.62 C
369 10-08-2020 06:40:00 19.3 C 91 % 17.79 C
370 10-08-2020 06:45:00 19.2 C 91 % 17.69 C
371 10-08-2020 06:50:00 19.2 C 91 % 17.69 C
372 10-08-2020 06:55:00 19.2 C 91 % 17.69 C
373 10-08-2020 07:00:00 19.2 C 91 % 17.69 C
374 10-08-2020 07:05:00 19.2 C 91 % 17.69 C
375 10-08-2020 07:10:00 19.2 C 91 % 17.69 C
Sensor: Nr:Datum:Temp:Feuchte:Taupunkt:
Aussen-T/F 376 10-08-2020 07:15:00 19.2 C 92 % 17.87 C
377 10-08-2020 07:20:00 19.3 C 92 % 17.97 C
378 10-08-2020 07:25:00 19.4 C 92 % 18.07 C
379 10-08-2020 07:30:00 19.4 C 92 % 18.07 C
380 10-08-2020 07:35:00 19.6 C 92 % 18.26 C
381 10-08-2020 07:40:00 19.7 C 92 % 18.36 C
382 10-08-2020 07:45:00 19.8 C 92 % 18.46 C
383 10-08-2020 07:50:00 19.9 C 92 % 18.56 C
384 10-08-2020 07:55:00 19.9 C 92 % 18.56 C
385 10-08-2020 08:00:00 20.1 C 91 % 18.58 C
386 10-08-2020 08:05:00 20.1 C 91 % 18.58 C
387 10-08-2020 08:10:00 20.2 C 91 % 18.68 C
388 10-08-2020 08:15:00 20.3 C 91 % 18.78 C
389 10-08-2020 08:20:00 20.4 C 91 % 18.88 C
390 10-08-2020 08:25:00 20.5 C 91 % 18.98 C
391 10-08-2020 08:30:00 20.6 C 90 % 18.9 C
392 10-08-2020 08:35:00 20.7 C 90 % 19 C
393 10-08-2020 08:40:00 20.8 C 89 % 18.92 C
394 10-08-2020 08:45:00 20.9 C 89 % 19.02 C
395 10-08-2020 08:50:00 21.2 C 88 % 19.13 C
396 10-08-2020 08:55:00 21.3 C 88 % 19.23 C
397 10-08-2020 09:00:00 21.6 C 88 % 19.53 C
398 10-08-2020 09:05:00 21.8 C 88 % 19.72 C
399 10-08-2020 09:10:00 22.1 C 86 % 19.65 C
400 10-08-2020 09:15:00 22.4 C 85 % 19.75 C
Sensor: Nr:Datum:Temp:Feuchte:Taupunkt:
Aussen-T/F 401 10-08-2020 09:20:00 22.8 C 81 % 19.37 C
402 10-08-2020 09:25:00 23.2 C 79 % 19.35 C
403 10-08-2020 09:30:00 23.5 C 76 % 19.02 C
404 10-08-2020 09:35:00 23.8 C 75 % 19.1 C
405 10-08-2020 09:40:00 24 C 74 % 19.08 C
406 10-08-2020 09:45:00 24.2 C 73 % 19.05 C
407 10-08-2020 09:50:00 24.3 C 74 % 19.37 C
408 10-08-2020 09:55:00 24.4 C 73 % 19.24 C
409 10-08-2020 10:00:00 24.5 C 72 % 19.12 C
410 10-08-2020 10:05:00 24.7 C 72 % 19.31 C
411 10-08-2020 10:10:00 24.8 C 71 % 19.18 C
412 10-08-2020 10:15:00 24.9 C 70 % 19.05 C
413 10-08-2020 10:20:00 25 C 70 % 19.15 C
414 10-08-2020 10:25:00 25.1 C 70 % 19.24 C
415 10-08-2020 10:30:00 25.2 C 69 % 19.11 C
416 10-08-2020 10:35:00 25.3 C 69 % 19.2 C
417 10-08-2020 10:40:00 25.5 C 68 % 19.16 C
418 10-08-2020 10:45:00 25.6 C 67 % 19.01 C
419 10-08-2020 10:50:00 25.8 C 66 % 18.96 C
420 10-08-2020 10:55:00 25.9 C 66 % 19.06 C
421 10-08-2020 11:00:00 26 C 65 % 18.91 C
422 10-08-2020 11:05:00 26.2 C 66 % 19.34 C
423 10-08-2020 11:10:00 26.4 C 64 % 19.04 C
424 10-08-2020 11:15:00 26.7 C 62 % 18.81 C
425 10-08-2020 11:20:00 26.8 C 61 % 18.65 C
Sensor: Nr:Datum:Temp:Feuchte:Taupunkt:
Aussen-T/F 426 10-08-2020 11:25:00 27 C 60 % 18.57 C
427 10-08-2020 11:30:00 26.9 C 61 % 18.74 C
428 10-08-2020 11:35:00 26.9 C 61 % 18.74 C
429 10-08-2020 11:40:00 27.1 C 60 % 18.66 C
430 10-08-2020 11:45:00 27.2 C 60 % 18.76 C
431 10-08-2020 11:50:00 27.3 C 59 % 18.58 C
432 10-08-2020 11:55:00 27.3 C 60 % 18.85 C
433 10-08-2020 12:00:00 27.2 C 60 % 18.76 C
434 10-08-2020 12:05:00 27.2 C 60 % 18.76 C
435 10-08-2020 12:10:00 27.3 C 60 % 18.85 C
436 10-08-2020 12:15:00 27.3 C 60 % 18.85 C
437 10-08-2020 12:20:00 27.3 C 60 % 18.85 C
438 10-08-2020 12:25:00 27.2 C 60 % 18.76 C
439 10-08-2020 12:30:00 27.2 C 61 % 19.02 C
440 10-08-2020 12:35:00 27.3 C 61 % 19.12 C
441 10-08-2020 12:40:00 27.3 C 61 % 19.12 C
442 10-08-2020 12:45:00 27.6 C 60 % 19.13 C
443 10-08-2020 12:50:00 27.8 C 59 % 19.05 C
444 10-08-2020 12:55:00 28.1 C 59 % 19.33 C
445 10-08-2020 13:00:00 28.3 C 58 % 19.24 C
446 10-08-2020 13:05:00 28.5 C 57 % 19.15 C
447 10-08-2020 13:10:00 28.7 C 57 % 19.34 C
448 10-08-2020 13:15:00 28.9 C 56 % 19.24 C
449 10-08-2020 13:20:00 28.9 C 56 % 19.24 C
450 10-08-2020 13:25:00 29.2 C 55 % 19.23 C
Sensor: Nr:Datum:Temp:Feuchte:Taupunkt:
Aussen-T/F 451 10-08-2020 13:30:00 29.3 C 55 % 19.32 C
452 10-08-2020 13:35:00 29.6 C 54 % 19.3 C
453 10-08-2020 13:40:00 29.7 C 54 % 19.39 C
454 10-08-2020 13:45:00 29.9 C 53 % 19.28 C
455 10-08-2020 13:50:00 30.1 C 52 % 19.16 C
456 10-08-2020 13:55:00 30.2 C 52 % 19.25 C
457 10-08-2020 14:00:00 30.3 C 50 % 18.71 C
458 10-08-2020 14:05:00 30.4 C 51 % 19.12 C
459 10-08-2020 14:10:00 30.7 C 51 % 19.4 C
460 10-08-2020 14:15:00 30.8 C 49 % 18.85 C
461 10-08-2020 14:20:00 31 C 51 % 19.67 C
462 10-08-2020 14:25:00 31.2 C 49 % 19.21 C
463 10-08-2020 14:30:00 31.3 C 50 % 19.63 C
464 10-08-2020 14:35:00 31.3 C 49 % 19.3 C
465 10-08-2020 14:40:00 31.3 C 50 % 19.63 C
466 10-08-2020 14:45:00 31.2 C 49 % 19.21 C
467 10-08-2020 14:50:00 31.4 C 50 % 19.72 C
468 10-08-2020 14:55:00 31.6 C 49 % 19.58 C
469 10-08-2020 15:00:00 31.8 C 48 % 19.43 C
470 10-08-2020 15:05:00 31.8 C 47 % 19.09 C
471 10-08-2020 15:10:00 31.8 C 48 % 19.43 C
472 10-08-2020 15:15:00 32.1 C 47 % 19.36 C
473 10-08-2020 15:20:00 32.3 C 47 % 19.54 C
474 10-08-2020 15:25:00 32.5 C 48 % 20.06 C
475 10-08-2020 15:30:00 32.8 C 45 % 19.3 C
Sensor: Nr:Datum:Temp:Feuchte:Taupunkt:
Aussen-T/F 476 10-08-2020 15:35:00 32.8 C 45 % 19.3 C
477 10-08-2020 15:40:00 32.9 C 45 % 19.39 C
478 10-08-2020 15:45:00 33.1 C 46 % 19.92 C
479 10-08-2020 15:50:00 33.3 C 43 % 19.02 C
480 10-08-2020 15:55:00 33.3 C 39 % 17.46 C
481 10-08-2020 16:00:00 33.4 C 39 % 17.55 C
482 10-08-2020 16:05:00 33.6 C 39 % 17.73 C
483 10-08-2020 16:10:00 33.4 C 38 % 17.14 C
484 10-08-2020 16:15:00 33.3 C 38 % 17.05 C
485 10-08-2020 16:20:00 33.5 C 37 % 16.81 C
486 10-08-2020 16:25:00 33.7 C 38 % 17.4 C
487 10-08-2020 16:30:00 33.9 C 36 % 16.73 C
488 10-08-2020 16:35:00 34.2 C 37 % 17.42 C
489 10-08-2020 16:40:00 34.2 C 38 % 17.84 C
490 10-08-2020 16:45:00 34.2 C 40 % 18.66 C
491 10-08-2020 16:50:00 34.2 C 39 % 18.26 C
492 10-08-2020 16:55:00 34.3 C 37 % 17.51 C
493 10-08-2020 17:00:00 34.4 C 36 % 17.16 C
494 10-08-2020 17:05:00 34.4 C 35 % 16.72 C
495 10-08-2020 17:10:00 34.6 C 36 % 17.34 C
496 10-08-2020 17:15:00 34.7 C 34 % 16.53 C
497 10-08-2020 17:20:00 34.7 C 35 % 16.98 C
498 10-08-2020 17:25:00 34.6 C 36 % 17.34 C
499 10-08-2020 17:30:00 34.4 C 37 % 17.6 C
500 10-08-2020 17:35:00 34.3 C 37 % 17.51 C
Sensor: Nr:Datum:Temp:Feuchte:Taupunkt:
Aussen-T/F 501 10-08-2020 17:40:00 34.3 C 38 % 17.93 C
502 10-08-2020 17:45:00 34.1 C 37 % 17.33 C
503 10-08-2020 17:50:00 34.2 C 39 % 18.26 C
504 10-08-2020 17:55:00 34.2 C 38 % 17.84 C
505 10-08-2020 18:00:00 34.3 C 37 % 17.51 C
506 10-08-2020 18:05:00 34.3 C 38 % 17.93 C
507 10-08-2020 18:10:00 34.2 C 39 % 18.26 C
508 10-08-2020 18:15:00 34.1 C 37 % 17.33 C
509 10-08-2020 18:20:00 33.9 C 39 % 17.99 C
510 10-08-2020 18:25:00 33.9 C 40 % 18.4 C
511 10-08-2020 18:30:00 33.7 C 41 % 18.61 C
512 10-08-2020 18:35:00 33.6 C 41 % 18.52 C
513 10-08-2020 18:40:00 33.5 C 41 % 18.43 C
514 10-08-2020 18:45:00 33.4 C 41 % 18.34 C
515 10-08-2020 18:50:00 33.2 C 41 % 18.17 C
516 10-08-2020 18:55:00 33.1 C 42 % 18.46 C
517 10-08-2020 19:00:00 32.9 C 43 % 18.66 C
518 10-08-2020 19:05:00 32.8 C 45 % 19.3 C
519 10-08-2020 19:10:00 32.8 C 47 % 20 C
520 10-08-2020 19:15:00 32.7 C 46 % 19.56 C
521 10-08-2020 19:20:00 32.7 C 48 % 20.25 C
522 10-08-2020 19:25:00 32.6 C 49 % 20.49 C
523 10-08-2020 19:30:00 32.4 C 49 % 20.31 C
524 10-08-2020 19:35:00 32.3 C 48 % 19.88 C
525 10-08-2020 19:40:00 32 C 48 % 19.61 C
Sensor: Nr:Datum:Temp:Feuchte:Taupunkt:
Aussen-T/F 526 10-08-2020 19:45:00 31.8 C 49 % 19.76 C
527 10-08-2020 19:50:00 31.6 C 49 % 19.58 C
528 10-08-2020 19:55:00 31.3 C 50 % 19.63 C
529 10-08-2020 20:00:00 31.1 C 51 % 19.76 C
530 10-08-2020 20:05:00 30.8 C 51 % 19.49 C
531 10-08-2020 20:10:00 30.5 C 51 % 19.21 C
532 10-08-2020 20:15:00 30.3 C 52 % 19.34 C
533 10-08-2020 20:20:00 30.1 C 53 % 19.46 C
534 10-08-2020 20:25:00 29.8 C 54 % 19.49 C
535 10-08-2020 20:30:00 29.6 C 55 % 19.6 C
536 10-08-2020 20:35:00 29.2 C 56 % 19.52 C
537 10-08-2020 20:40:00 28.8 C 59 % 19.99 C
538 10-08-2020 20:45:00 28.4 C 59 % 19.61 C
539 10-08-2020 20:50:00 27.9 C 60 % 19.41 C
540 10-08-2020 20:55:00 27.6 C 61 % 19.4 C
541 10-08-2020 21:00:00 27.3 C 61 % 19.12 C
542 10-08-2020 21:05:00 27.1 C 62 % 19.19 C
543 10-08-2020 21:10:00 26.9 C 62 % 19 C
544 10-08-2020 21:15:00 26.8 C 63 % 19.16 C
545 10-08-2020 21:20:00 26.6 C 63 % 18.97 C
546 10-08-2020 21:25:00 26.4 C 64 % 19.04 C
547 10-08-2020 21:30:00 26.3 C 64 % 18.94 C
548 10-08-2020 21:35:00 26.2 C 65 % 19.1 C
549 10-08-2020 21:40:00 26.1 C 65 % 19 C
550 10-08-2020 21:45:00 26.1 C 65 % 19 C
Sensor: Nr:Datum:Temp:Feuchte:Taupunkt:
Aussen-T/F 551 10-08-2020 21:50:00 26 C 64 % 18.66 C
552 10-08-2020 21:55:00 26 C 64 % 18.66 C
553 10-08-2020 22:00:00 26 C 64 % 18.66 C
554 10-08-2020 22:05:00 26.1 C 64 % 18.76 C
555 10-08-2020 22:10:00 26.2 C 63 % 18.6 C
556 10-08-2020 22:15:00 26.4 C 63 % 18.79 C
557 10-08-2020 22:20:00 26.4 C 62 % 18.53 C
558 10-08-2020 22:25:00 26.6 C 60 % 18.2 C
559 10-08-2020 22:30:00 26.7 C 61 % 18.55 C
560 10-08-2020 22:35:00 26.7 C 61 % 18.55 C
561 10-08-2020 22:40:00 26.6 C 62 % 18.72 C
562 10-08-2020 22:45:00 26.4 C 61 % 18.27 C
563 10-08-2020 22:50:00 26.3 C 62 % 18.44 C
564 10-08-2020 22:55:00 26.1 C 62 % 18.25 C
565 10-08-2020 23:00:00 25.9 C 63 % 18.31 C
566 10-08-2020 23:05:00 25.8 C 64 % 18.47 C
567 10-08-2020 23:10:00 25.7 C 64 % 18.38 C
568 10-08-2020 23:15:00 25.4 C 65 % 18.34 C
569 10-08-2020 23:20:00 25.2 C 65 % 18.15 C
570 10-08-2020 23:25:00 25.1 C 67 % 18.54 C
571 10-08-2020 23:30:00 24.8 C 67 % 18.25 C
572 10-08-2020 23:35:00 24.6 C 68 % 18.3 C
573 10-08-2020 23:40:00 24.4 C 69 % 18.34 C
574 10-08-2020 23:45:00 24.4 C 70 % 18.57 C
575 10-08-2020 23:50:00 24.3 C 70 % 18.48 C
Sensor: Nr:Datum:Temp:Feuchte:Taupunkt:
Aussen-T/F 576 10-08-2020 23:55:00 24.2 C 71 % 18.61 C
577 11-08-2020 00:00:00 24.1 C 71 % 18.51 C
578 11-08-2020 00:05:00 24 C 71 % 18.42 C
579 11-08-2020 00:10:00 23.9 C 71 % 18.32 C
580 11-08-2020 00:15:00 23.8 C 72 % 18.45 C
581 11-08-2020 00:20:00 23.8 C 72 % 18.45 C
582 11-08-2020 00:25:00 23.7 C 72 % 18.35 C
583 11-08-2020 00:30:00 23.6 C 73 % 18.48 C
584 11-08-2020 00:35:00 23.4 C 73 % 18.28 C
585 11-08-2020 00:40:00 23.3 C 73 % 18.19 C
586 11-08-2020 00:45:00 23.2 C 74 % 18.31 C
587 11-08-2020 00:50:00 23.2 C 74 % 18.31 C
588 11-08-2020 00:55:00 23.1 C 75 % 18.43 C
589 11-08-2020 01:00:00 23.1 C 75 % 18.43 C
590 11-08-2020 01:05:00 23 C 75 % 18.33 C
591 11-08-2020 01:10:00 22.9 C 75 % 18.23 C
592 11-08-2020 01:15:00 22.9 C 75 % 18.23 C
593 11-08-2020 01:20:00 22.9 C 76 % 18.44 C
594 11-08-2020 01:25:00 22.8 C 76 % 18.35 C
595 11-08-2020 01:30:00 22.8 C 76 % 18.35 C
596 11-08-2020 01:35:00 22.8 C 76 % 18.35 C
597 11-08-2020 01:40:00 22.7 C 76 % 18.25 C
598 11-08-2020 01:45:00 22.6 C 77 % 18.36 C
599 11-08-2020 01:50:00 22.5 C 77 % 18.27 C
600 11-08-2020 01:55:00 22.4 C 77 % 18.17 C
Sensor: Nr:Datum:Temp:Feuchte:Taupunkt:
Aussen-T/F 601 11-08-2020 02:00:00 22.3 C 77 % 18.07 C
602 11-08-2020 02:05:00 22.3 C 78 % 18.28 C
603 11-08-2020 02:10:00 22.2 C 78 % 18.18 C
604 11-08-2020 02:15:00 22.2 C 78 % 18.18 C
605 11-08-2020 02:20:00 22.1 C 78 % 18.08 C
606 11-08-2020 02:25:00 22.1 C 78 % 18.08 C
607 11-08-2020 02:30:00 22 C 79 % 18.19 C
608 11-08-2020 02:35:00 21.9 C 79 % 18.09 C
609 11-08-2020 02:40:00 21.9 C 79 % 18.09 C
610 11-08-2020 02:45:00 21.9 C 79 % 18.09 C
611 11-08-2020 02:50:00 21.8 C 79 % 18 C
612 11-08-2020 02:55:00 21.8 C 79 % 18 C
613 11-08-2020 03:00:00 21.8 C 79 % 18 C
614 11-08-2020 03:05:00 21.8 C 79 % 18 C
615 11-08-2020 03:10:00 21.7 C 79 % 17.9 C
616 11-08-2020 03:15:00 21.7 C 79 % 17.9 C
617 11-08-2020 03:20:00 21.7 C 79 % 17.9 C
618 11-08-2020 03:25:00 21.6 C 79 % 17.8 C
619 11-08-2020 03:30:00 21.6 C 79 % 17.8 C
620 11-08-2020 03:35:00 21.5 C 80 % 17.9 C
621 11-08-2020 03:40:00 21.4 C 80 % 17.81 C
622 11-08-2020 03:45:00 21.4 C 80 % 17.81 C
623 11-08-2020 03:50:00 21.3 C 80 % 17.71 C
624 11-08-2020 03:55:00 21.3 C 80 % 17.71 C
625 11-08-2020 04:00:00 21.2 C 80 % 17.61 C
Sensor: Nr:Datum:Temp:Feuchte:Taupunkt:
Aussen-T/F 626 11-08-2020 04:05:00 21.2 C 81 % 17.81 C
627 11-08-2020 04:10:00 21.1 C 81 % 17.71 C
628 11-08-2020 04:15:00 21.1 C 81 % 17.71 C
629 11-08-2020 04:20:00 21 C 81 % 17.61 C
630 11-08-2020 04:25:00 21 C 81 % 17.61 C
631 11-08-2020 04:30:00 21 C 81 % 17.61 C
632 11-08-2020 04:35:00 20.9 C 81 % 17.52 C
633 11-08-2020 04:40:00 20.9 C 81 % 17.52 C
634 11-08-2020 04:45:00 20.9 C 81 % 17.52 C
635 11-08-2020 04:50:00 20.8 C 82 % 17.61 C
636 11-08-2020 04:55:00 20.8 C 81 % 17.42 C
637 11-08-2020 05:00:00 20.8 C 82 % 17.61 C
638 11-08-2020 05:05:00 20.8 C 82 % 17.61 C
639 11-08-2020 05:10:00 20.7 C 82 % 17.52 C
640 11-08-2020 05:15:00 20.7 C 82 % 17.52 C
641 11-08-2020 05:20:00 20.7 C 82 % 17.52 C
642 11-08-2020 05:25:00 20.7 C 82 % 17.52 C
643 11-08-2020 05:30:00 20.6 C 82 % 17.42 C
644 11-08-2020 05:35:00 20.6 C 82 % 17.42 C
645 11-08-2020 05:40:00 20.5 C 82 % 17.32 C
646 11-08-2020 05:45:00 20.4 C 82 % 17.22 C
647 11-08-2020 05:50:00 20.4 C 82 % 17.22 C
648 11-08-2020 05:55:00 20.3 C 82 % 17.13 C
649 11-08-2020 06:00:00 20.3 C 82 % 17.13 C
650 11-08-2020 06:05:00 20.2 C 82 % 17.03 C
Sensor: Nr:Datum:Temp:Feuchte:Taupunkt:
Aussen-T/F 651 11-08-2020 06:10:00 20.2 C 83 % 17.22 C
652 11-08-2020 06:15:00 20.1 C 83 % 17.12 C
653 11-08-2020 06:20:00 20.1 C 83 % 17.12 C
654 11-08-2020 06:25:00 20.1 C 83 % 17.12 C
655 11-08-2020 06:30:00 20.1 C 83 % 17.12 C
656 11-08-2020 06:35:00 20.1 C 83 % 17.12 C
657 11-08-2020 06:40:00 20.1 C 83 % 17.12 C
658 11-08-2020 06:45:00 20 C 83 % 17.02 C
659 11-08-2020 06:50:00 20 C 83 % 17.02 C
660 11-08-2020 06:55:00 20.1 C 83 % 17.12 C
661 11-08-2020 07:00:00 20.1 C 84 % 17.31 C
662 11-08-2020 07:05:00 20.1 C 84 % 17.31 C
663 11-08-2020 07:10:00 20.1 C 84 % 17.31 C
664 11-08-2020 07:15:00 20.1 C 84 % 17.31 C
665 11-08-2020 07:20:00 20.2 C 84 % 17.41 C
666 11-08-2020 07:25:00 20.2 C 85 % 17.6 C
667 11-08-2020 07:30:00 20.3 C 85 % 17.7 C
668 11-08-2020 07:35:00 20.3 C 85 % 17.7 C
669 11-08-2020 07:40:00 20.4 C 85 % 17.79 C
670 11-08-2020 07:45:00 20.5 C 85 % 17.89 C
671 11-08-2020 07:50:00 20.7 C 85 % 18.09 C
672 11-08-2020 07:55:00 20.7 C 85 % 18.09 C
673 11-08-2020 08:00:00 20.9 C 84 % 18.09 C
674 11-08-2020 08:05:00 21 C 84 % 18.19 C
675 11-08-2020 08:10:00 21.2 C 84 % 18.39 C
Sensor: Nr:Datum:Temp:Feuchte:Taupunkt:
Aussen-T/F 676 11-08-2020 08:15:00 21.3 C 84 % 18.49 C
677 11-08-2020 08:20:00 21.5 C 83 % 18.49 C
678 11-08-2020 08:25:00 21.7 C 81 % 18.3 C
679 11-08-2020 08:30:00 21.8 C 80 % 18.2 C
680 11-08-2020 08:35:00 22 C 81 % 18.59 C
681 11-08-2020 08:40:00 22.2 C 79 % 18.38 C
682 11-08-2020 08:45:00 22.4 C 78 % 18.37 C
683 11-08-2020 08:50:00 22.6 C 78 % 18.57 C
684 11-08-2020 08:55:00 22.7 C 77 % 18.46 C
685 11-08-2020 09:00:00 22.8 C 76 % 18.35 C
686 11-08-2020 09:05:00 22.9 C 75 % 18.23 C
687 11-08-2020 09:10:00 23.2 C 75 % 18.52 C
688 11-08-2020 09:15:00 23.3 C 73 % 18.19 C
689 11-08-2020 09:20:00 23.5 C 73 % 18.38 C
690 11-08-2020 09:25:00 23.6 C 73 % 18.48 C
691 11-08-2020 09:30:00 23.8 C 73 % 18.67 C
692 11-08-2020 09:35:00 23.8 C 72 % 18.45 C
693 11-08-2020 09:40:00 23.9 C 72 % 18.54 C
694 11-08-2020 09:45:00 24.1 C 71 % 18.51 C
695 11-08-2020 09:50:00 24.1 C 72 % 18.73 C
696 11-08-2020 09:55:00 24.3 C 74 % 19.37 C
697 11-08-2020 10:00:00 24.4 C 72 % 19.02 C
698 11-08-2020 10:05:00 24.5 C 71 % 18.89 C
699 11-08-2020 10:10:00 24.7 C 72 % 19.31 C
700 11-08-2020 10:15:00 24.8 C 70 % 18.95 C
Sensor: Nr:Datum:Temp:Feuchte:Taupunkt:
Aussen-T/F 701 11-08-2020 10:20:00 25.1 C 70 % 19.24 C
702 11-08-2020 10:25:00 25.3 C 68 % 18.97 C
703 11-08-2020 10:30:00 25.7 C 67 % 19.11 C
704 11-08-2020 10:35:00 25.9 C 65 % 18.81 C
705 11-08-2020 10:40:00 26.3 C 64 % 18.94 C
706 11-08-2020 10:45:00 26.6 C 64 % 19.23 C
707 11-08-2020 10:50:00 26.8 C 63 % 19.16 C
708 11-08-2020 10:55:00 27.1 C 62 % 19.19 C
709 11-08-2020 11:00:00 27.3 C 62 % 19.38 C
710 11-08-2020 11:05:00 27.6 C 61 % 19.4 C
711 11-08-2020 11:10:00 27.8 C 60 % 19.32 C
712 11-08-2020 11:15:00 27.9 C 59 % 19.14 C
713 11-08-2020 11:20:00 28.2 C 59 % 19.42 C
714 11-08-2020 11:25:00 28.3 C 58 % 19.24 C
715 11-08-2020 11:30:00 28.4 C 59 % 19.61 C
716 11-08-2020 11:35:00 28.4 C 58 % 19.34 C
717 11-08-2020 11:40:00 28.6 C 58 % 19.52 C
718 11-08-2020 11:45:00 28.9 C 57 % 19.52 C
719 11-08-2020 11:50:00 29.1 C 56 % 19.42 C
720 11-08-2020 11:55:00 29.2 C 56 % 19.52 C
721 11-08-2020 12:00:00 29.3 C 56 % 19.61 C
722 11-08-2020 12:05:00 29.4 C 56 % 19.7 C
723 11-08-2020 12:10:00 29.5 C 55 % 19.5 C
724 11-08-2020 12:15:00 29.6 C 55 % 19.6 C
725 11-08-2020 12:20:00 29.7 C 56 % 19.98 C
Sensor: Nr:Datum:Temp:Feuchte:Taupunkt:
Aussen-T/F 726 11-08-2020 12:25:00 29.7 C 55 % 19.69 C
727 11-08-2020 12:30:00 29.8 C 55 % 19.78 C
728 11-08-2020 12:35:00 29.8 C 54 % 19.49 C
729 11-08-2020 12:40:00 29.8 C 54 % 19.49 C
730 11-08-2020 12:45:00 29.8 C 54 % 19.49 C
731 11-08-2020 12:50:00 29.8 C 55 % 19.78 C
732 11-08-2020 12:55:00 29.9 C 56 % 20.17 C
733 11-08-2020 13:00:00 30 C 55 % 19.97 C
734 11-08-2020 13:05:00 30.1 C 54 % 19.76 C
735 11-08-2020 13:10:00 30.2 C 55 % 20.15 C
736 11-08-2020 13:15:00 30.2 C 54 % 19.86 C
737 11-08-2020 13:20:00 30.3 C 53 % 19.65 C
738 11-08-2020 13:25:00 30.3 C 53 % 19.65 C
739 11-08-2020 13:30:00 30.4 C 55 % 20.34 C
740 11-08-2020 13:35:00 30.4 C 54 % 20.04 C
741 11-08-2020 13:40:00 30.5 C 53 % 19.83 C
742 11-08-2020 13:45:00 30.6 C 53 % 19.92 C
743 11-08-2020 13:50:00 30.8 C 53 % 20.11 C
744 11-08-2020 13:55:00 31.1 C 53 % 20.39 C
745 11-08-2020 14:00:00 31.3 C 52 % 20.26 C
746 11-08-2020 14:05:00 31.4 C 50 % 19.72 C
747 11-08-2020 14:10:00 31.7 C 50 % 19.99 C
748 11-08-2020 14:15:00 31.9 C 48 % 19.52 C
749 11-08-2020 14:20:00 32.2 C 48 % 19.79 C
750 11-08-2020 14:25:00 32.4 C 44 % 18.57 C
Sensor: Nr:Datum:Temp:Feuchte:Taupunkt:
Aussen-T/F 751 11-08-2020 14:30:00 32.5 C 44 % 18.66 C
752 11-08-2020 14:35:00 32.6 C 44 % 18.75 C
753 11-08-2020 14:40:00 32.8 C 42 % 18.19 C
754 11-08-2020 14:45:00 32.9 C 42 % 18.28 C
755 11-08-2020 14:50:00 32.9 C 42 % 18.28 C
756 11-08-2020 14:55:00 32.8 C 43 % 18.57 C
757 11-08-2020 15:00:00 32.9 C 43 % 18.66 C
758 11-08-2020 15:05:00 33.1 C 43 % 18.84 C
759 11-08-2020 15:10:00 33.2 C 41 % 18.17 C
760 11-08-2020 15:15:00 33.2 C 42 % 18.55 C
761 11-08-2020 15:20:00 33.4 C 42 % 18.73 C
762 11-08-2020 15:25:00 33.4 C 40 % 17.95 C
763 11-08-2020 15:30:00 33.4 C 41 % 18.34 C
764 11-08-2020 15:35:00 33.4 C 40 % 17.95 C
765 11-08-2020 15:40:00 33.4 C 38 % 17.14 C
766 11-08-2020 15:45:00 33.6 C 41 % 18.52 C
767 11-08-2020 15:50:00 33.8 C 39 % 17.9 C
768 11-08-2020 15:55:00 34 C 37 % 17.25 C
769 11-08-2020 16:00:00 34.2 C 37 % 17.42 C
770 11-08-2020 16:05:00 34.3 C 37 % 17.51 C
771 11-08-2020 16:10:00 34.7 C 36 % 17.43 C
772 11-08-2020 16:15:00 35 C 36 % 17.69 C
773 11-08-2020 16:20:00 35.2 C 36 % 17.87 C
774 11-08-2020 16:25:00 35.4 C 34 % 17.13 C
775 11-08-2020 16:30:00 35.7 C 35 % 17.86 C
Sensor: Nr:Datum:Temp:Feuchte:Taupunkt:
Aussen-T/F 776 11-08-2020 16:35:00 35.9 C 34 % 17.57 C
777 11-08-2020 16:40:00 36.1 C 33 % 17.27 C
778 11-08-2020 16:45:00 35.8 C 33 % 17.01 C
779 11-08-2020 16:50:00 35.6 C 33 % 16.84 C
780 11-08-2020 16:55:00 35.4 C 34 % 17.13 C
781 11-08-2020 17:00:00 35.6 C 35 % 17.77 C
782 11-08-2020 17:05:00 35.3 C 35 % 17.51 C
783 11-08-2020 17:10:00 34.9 C 36 % 17.6 C
784 11-08-2020 17:15:00 34.9 C 36 % 17.6 C
785 11-08-2020 17:20:00 34.8 C 35 % 17.07 C
786 11-08-2020 17:25:00 34.5 C 36 % 17.25 C
787 11-08-2020 17:30:00 34.4 C 37 % 17.6 C
788 11-08-2020 17:35:00 34.3 C 36 % 17.08 C
789 11-08-2020 17:40:00 34.1 C 36 % 16.9 C
790 11-08-2020 17:45:00 33.8 C 37 % 17.07 C
791 11-08-2020 17:50:00 33.6 C 38 % 17.31 C
792 11-08-2020 17:55:00 33.5 C 38 % 17.23 C
793 11-08-2020 18:00:00 33.3 C 42 % 18.64 C
794 11-08-2020 18:05:00 33.1 C 40 % 17.68 C
795 11-08-2020 18:10:00 32.9 C 40 % 17.51 C
796 11-08-2020 18:15:00 32.7 C 40 % 17.33 C
797 11-08-2020 18:20:00 32.4 C 40 % 17.06 C
798 11-08-2020 18:25:00 32.2 C 41 % 17.27 C
799 11-08-2020 18:30:00 32 C 41 % 17.09 C
800 11-08-2020 18:35:00 31.8 C 42 % 17.3 C
Sensor: Nr:Datum:Temp:Feuchte:Taupunkt:
Aussen-T/F 801 11-08-2020 18:40:00 31.6 C 42 % 17.12 C
802 11-08-2020 18:45:00 31.4 C 44 % 17.67 C
803 11-08-2020 18:50:00 31.2 C 44 % 17.49 C
804 11-08-2020 18:55:00 31.1 C 45 % 17.76 C
805 11-08-2020 19:00:00 30.9 C 47 % 18.27 C
806 11-08-2020 19:05:00 30.7 C 48 % 18.43 C
807 11-08-2020 19:10:00 30.5 C 48 % 18.24 C
808 11-08-2020 19:15:00 30.4 C 48 % 18.15 C
809 11-08-2020 19:20:00 30.2 C 49 % 18.3 C
810 11-08-2020 19:25:00 30.1 C 52 % 19.16 C
811 11-08-2020 19:30:00 29.9 C 50 % 18.35 C
812 11-08-2020 19:35:00 29.8 C 54 % 19.49 C
813 11-08-2020 19:40:00 29.6 C 57 % 20.17 C
814 11-08-2020 19:45:00 29.2 C 60 % 20.63 C
815 11-08-2020 19:50:00 28.6 C 60 % 20.07 C
816 11-08-2020 19:55:00 27.8 C 62 % 19.85 C
817 11-08-2020 20:00:00 27.3 C 65 % 20.14 C
818 11-08-2020 20:05:00 26.8 C 68 % 20.4 C
819 11-08-2020 20:10:00 26.2 C 69 % 20.06 C
820 11-08-2020 20:15:00 25.8 C 73 % 20.59 C
821 11-08-2020 20:20:00 25.3 C 75 % 20.55 C
822 11-08-2020 20:25:00 24.9 C 77 % 20.59 C
823 11-08-2020 20:30:00 24.6 C 79 % 20.71 C
824 11-08-2020 20:35:00 24.1 C 81 % 20.63 C
825 11-08-2020 20:40:00 23.7 C 83 % 20.64 C
Sensor: Nr:Datum:Temp:Feuchte:Taupunkt:
Aussen-T/F 826 11-08-2020 20:45:00 23.4 C 86 % 20.92 C
827 11-08-2020 20:50:00 23.2 C 87 % 20.91 C
828 11-08-2020 20:55:00 22.9 C 88 % 20.81 C
829 11-08-2020 21:00:00 22.7 C 88 % 20.61 C
830 11-08-2020 21:05:00 22.6 C 89 % 20.69 C
831 11-08-2020 21:10:00 22.4 C 90 % 20.68 C
832 11-08-2020 21:15:00 22.3 C 91 % 20.76 C
833 11-08-2020 21:20:00 22.2 C 91 % 20.66 C
834 11-08-2020 21:25:00 22.1 C 92 % 20.74 C
835 11-08-2020 21:30:00 22 C 92 % 20.64 C
836 11-08-2020 21:35:00 21.9 C 92 % 20.54 C
837 11-08-2020 21:40:00 21.9 C 93 % 20.72 C
838 11-08-2020 21:45:00 21.9 C 93 % 20.72 C
839 11-08-2020 21:50:00 21.8 C 93 % 20.62 C
840 11-08-2020 21:55:00 21.8 C 93 % 20.62 C
841 11-08-2020 22:00:00 21.8 C 93 % 20.62 C
842 11-08-2020 22:05:00 21.8 C 93 % 20.62 C
843 11-08-2020 22:10:00 21.7 C 93 % 20.52 C
844 11-08-2020 22:15:00 21.7 C 93 % 20.52 C
845 11-08-2020 22:20:00 21.6 C 93 % 20.42 C
846 11-08-2020 22:25:00 21.6 C 93 % 20.42 C
847 11-08-2020 22:30:00 21.4 C 93 % 20.22 C
848 11-08-2020 22:35:00 21.4 C 93 % 20.22 C
849 11-08-2020 22:40:00 21.3 C 94 % 20.29 C
850 11-08-2020 22:45:00 21.3 C 94 % 20.29 C
Sensor: Nr:Datum:Temp:Feuchte:Taupunkt:
Aussen-T/F 851 11-08-2020 22:50:00 21.4 C 94 % 20.39 C
852 11-08-2020 22:55:00 21.3 C 94 % 20.29 C
853 11-08-2020 23:00:00 21.3 C 94 % 20.29 C
854 11-08-2020 23:05:00 21.4 C 95 % 20.57 C
855 11-08-2020 23:10:00 21.4 C 94 % 20.39 C
856 11-08-2020 23:15:00 21.3 C 95 % 20.47 C
857 11-08-2020 23:20:00 21.3 C 95 % 20.47 C
858 11-08-2020 23:25:00 21.3 C 95 % 20.47 C
859 11-08-2020 23:30:00 21.3 C 95 % 20.47 C
860 11-08-2020 23:35:00 21.3 C 95 % 20.47 C
861 11-08-2020 23:40:00 21.3 C 95 % 20.47 C
862 11-08-2020 23:45:00 21.3 C 95 % 20.47 C
863 11-08-2020 23:50:00 21.3 C 95 % 20.47 C
864 11-08-2020 23:55:00 21.2 C 95 % 20.37 C
865 12-08-2020 00:00:00 21.2 C 95 % 20.37 C
866 12-08-2020 00:05:00 21.3 C 95 % 20.47 C
867 12-08-2020 00:10:00 21.3 C 95 % 20.47 C
868 12-08-2020 00:15:00 21.2 C 95 % 20.37 C
869 12-08-2020 00:20:00 21.2 C 95 % 20.37 C
870 12-08-2020 00:25:00 21.2 C 95 % 20.37 C
871 12-08-2020 00:30:00 21.2 C 95 % 20.37 C
872 12-08-2020 00:35:00 21.1 C 95 % 20.27 C
873 12-08-2020 00:40:00 21.1 C 95 % 20.27 C
874 12-08-2020 00:45:00 21 C 95 % 20.17 C
875 12-08-2020 00:50:00 20.9 C 95 % 20.07 C
Sensor: Nr:Datum:Temp:Feuchte:Taupunkt:
Aussen-T/F 876 12-08-2020 00:55:00 20.9 C 95 % 20.07 C
877 12-08-2020 01:00:00 20.9 C 95 % 20.07 C
878 12-08-2020 01:05:00 20.8 C 95 % 19.97 C
879 12-08-2020 01:10:00 20.8 C 95 % 19.97 C
880 12-08-2020 01:15:00 20.8 C 95 % 19.97 C
881 12-08-2020 01:20:00 20.8 C 95 % 19.97 C
882 12-08-2020 01:25:00 20.8 C 95 % 19.97 C
883 12-08-2020 01:30:00 20.7 C 95 % 19.87 C
884 12-08-2020 01:35:00 20.7 C 95 % 19.87 C
885 12-08-2020 01:40:00 20.6 C 95 % 19.77 C
886 12-08-2020 01:45:00 20.7 C 96 % 20.04 C
887 12-08-2020 01:50:00 20.7 C 96 % 20.04 C
888 12-08-2020 01:55:00 20.7 C 96 % 20.04 C
889 12-08-2020 02:00:00 20.7 C 96 % 20.04 C
890 12-08-2020 02:05:00 20.7 C 96 % 20.04 C
891 12-08-2020 02:10:00 20.7 C 96 % 20.04 C
892 12-08-2020 02:15:00 20.7 C 96 % 20.04 C
893 12-08-2020 02:20:00 20.6 C 96 % 19.94 C
894 12-08-2020 02:25:00 20.6 C 96 % 19.94 C
895 12-08-2020 02:30:00 20.6 C 96 % 19.94 C
896 12-08-2020 02:35:00 20.5 C 96 % 19.84 C
897 12-08-2020 02:40:00 20.5 C 96 % 19.84 C
898 12-08-2020 02:45:00 20.5 C 96 % 19.84 C
899 12-08-2020 02:50:00 20.5 C 96 % 19.84 C
900 12-08-2020 02:55:00 20.5 C 96 % 19.84 C
Sensor: Nr:Datum:Temp:Feuchte:Taupunkt:
Aussen-T/F 901 12-08-2020 03:00:00 20.4 C 96 % 19.74 C
902 12-08-2020 03:05:00 20.4 C 96 % 19.74 C
903 12-08-2020 03:10:00 20.4 C 96 % 19.74 C
904 12-08-2020 03:15:00 20.4 C 96 % 19.74 C
905 12-08-2020 03:20:00 20.4 C 96 % 19.74 C
906 12-08-2020 03:25:00 20.4 C 96 % 19.74 C
907 12-08-2020 03:30:00 20.4 C 96 % 19.74 C
908 12-08-2020 03:35:00 20.4 C 96 % 19.74 C
909 12-08-2020 03:40:00 20.3 C 96 % 19.64 C
910 12-08-2020 03:45:00 20.2 C 96 % 19.54 C
911 12-08-2020 03:50:00 20.2 C 96 % 19.54 C
912 12-08-2020 03:55:00 20.1 C 96 % 19.44 C
913 12-08-2020 04:00:00 20.1 C 96 % 19.44 C
914 12-08-2020 04:05:00 20 C 96 % 19.34 C
915 12-08-2020 04:10:00 20 C 96 % 19.34 C
916 12-08-2020 04:15:00 19.9 C 96 % 19.24 C
917 12-08-2020 04:20:00 19.9 C 96 % 19.24 C
918 12-08-2020 04:25:00 19.8 C 96 % 19.14 C
919 12-08-2020 04:30:00 19.7 C 96 % 19.04 C
920 12-08-2020 04:35:00 19.7 C 96 % 19.04 C
921 12-08-2020 04:40:00 19.7 C 96 % 19.04 C
922 12-08-2020 04:45:00 19.7 C 96 % 19.04 C
923 12-08-2020 04:50:00 19.7 C 96 % 19.04 C
924 12-08-2020 04:55:00 19.7 C 96 % 19.04 C
925 12-08-2020 05:00:00 19.7 C 96 % 19.04 C
Sensor: Nr:Datum:Temp:Feuchte:Taupunkt:
Aussen-T/F 926 12-08-2020 05:05:00 19.7 C 96 % 19.04 C
927 12-08-2020 05:10:00 19.7 C 96 % 19.04 C
928 12-08-2020 05:15:00 19.7 C 96 % 19.04 C
929 12-08-2020 05:20:00 19.7 C 96 % 19.04 C
930 12-08-2020 05:25:00 19.7 C 96 % 19.04 C
931 12-08-2020 05:30:00 19.7 C 96 % 19.04 C
932 12-08-2020 05:35:00 19.7 C 96 % 19.04 C
933 12-08-2020 05:40:00 19.6 C 96 % 18.94 C
934 12-08-2020 05:45:00 19.6 C 97 % 19.11 C
935 12-08-2020 05:50:00 19.6 C 97 % 19.11 C
936 12-08-2020 05:55:00 19.6 C 97 % 19.11 C
937 12-08-2020 06:00:00 19.6 C 97 % 19.11 C
938 12-08-2020 06:05:00 19.6 C 97 % 19.11 C
939 12-08-2020 06:10:00 19.6 C 97 % 19.11 C
940 12-08-2020 06:15:00 19.6 C 97 % 19.11 C
941 12-08-2020 06:20:00 19.5 C 97 % 19.01 C
942 12-08-2020 06:25:00 19.4 C 96 % 18.75 C
943 12-08-2020 06:30:00 19.3 C 96 % 18.65 C
944 12-08-2020 06:35:00 19.3 C 96 % 18.65 C
945 12-08-2020 06:40:00 19.3 C 97 % 18.81 C
946 12-08-2020 06:45:00 19.3 C 97 % 18.81 C
947 12-08-2020 06:50:00 19.3 C 97 % 18.81 C
948 12-08-2020 06:55:00 19.3 C 97 % 18.81 C
949 12-08-2020 07:00:00 19.4 C 97 % 18.91 C
950 12-08-2020 07:05:00 19.4 C 97 % 18.91 C
Sensor: Nr:Datum:Temp:Feuchte:Taupunkt:
Aussen-T/F 951 12-08-2020 07:10:00 19.6 C 97 % 19.11 C
952 12-08-2020 07:15:00 19.7 C 97 % 19.21 C
953 12-08-2020 07:20:00 19.7 C 97 % 19.21 C
954 12-08-2020 07:25:00 19.8 C 97 % 19.31 C
955 12-08-2020 07:30:00 19.8 C 97 % 19.31 C
956 12-08-2020 07:35:00 19.8 C 97 % 19.31 C
957 12-08-2020 07:40:00 19.9 C 97 % 19.41 C
958 12-08-2020 07:45:00 19.9 C 97 % 19.41 C
959 12-08-2020 07:50:00 20 C 97 % 19.51 C
960 12-08-2020 07:55:00 20.1 C 97 % 19.61 C
961 12-08-2020 08:00:00 20.1 C 97 % 19.61 C
962 12-08-2020 08:05:00 20.2 C 97 % 19.71 C
963 12-08-2020 08:10:00 20.2 C 97 % 19.71 C
964 12-08-2020 08:15:00 20.3 C 97 % 19.81 C
965 12-08-2020 08:20:00 20.4 C 97 % 19.91 C
966 12-08-2020 08:25:00 20.6 C 97 % 20.11 C
967 12-08-2020 08:30:00 20.6 C 98 % 20.27 C
968 12-08-2020 08:35:00 20.7 C 97 % 20.21 C
969 12-08-2020 08:40:00 20.7 C 97 % 20.21 C
970 12-08-2020 08:45:00 20.7 C 97 % 20.21 C
971 12-08-2020 08:50:00 20.7 C 97 % 20.21 C
972 12-08-2020 08:55:00 20.6 C 97 % 20.11 C
973 12-08-2020 09:00:00 20.6 C 97 % 20.11 C
974 12-08-2020 09:05:00 20.6 C 97 % 20.11 C
975 12-08-2020 09:10:00 20.5 C 97 % 20.01 C
Sensor: Nr:Datum:Temp:Feuchte:Taupunkt:
Aussen-T/F 976 12-08-2020 09:15:00 20.5 C 97 % 20.01 C
977 12-08-2020 09:20:00 20.6 C 97 % 20.11 C
978 12-08-2020 09:25:00 20.6 C 97 % 20.11 C
979 12-08-2020 09:30:00 20.7 C 97 % 20.21 C
980 12-08-2020 09:35:00 20.8 C 97 % 20.31 C
981 12-08-2020 09:40:00 20.9 C 97 % 20.41 C
982 12-08-2020 09:45:00 20.9 C 98 % 20.57 C
983 12-08-2020 09:50:00 20.9 C 97 % 20.41 C
984 12-08-2020 09:55:00 20.9 C 97 % 20.41 C
985 12-08-2020 10:00:00 21 C 97 % 20.51 C
986 12-08-2020 10:05:00 21.1 C 97 % 20.6 C
987 12-08-2020 10:10:00 21.1 C 97 % 20.6 C
988 12-08-2020 10:15:00 21.1 C 97 % 20.6 C
989 12-08-2020 10:20:00 21.1 C 97 % 20.6 C
990 12-08-2020 10:25:00 21.2 C 97 % 20.7 C
991 12-08-2020 10:30:00 21.3 C 98 % 20.97 C
992 12-08-2020 10:35:00 21.4 C 98 % 21.07 C
993 12-08-2020 10:40:00 21.5 C 98 % 21.17 C
994 12-08-2020 10:45:00 21.3 C 97 % 20.8 C
995 12-08-2020 10:50:00 21.3 C 96 % 20.64 C
996 12-08-2020 10:55:00 21.4 C 95 % 20.57 C
997 12-08-2020 11:00:00 21.6 C 94 % 20.59 C
998 12-08-2020 11:05:00 22.2 C 90 % 20.48 C
999 12-08-2020 11:10:00 22.8 C 87 % 20.52 C
1000 12-08-2020 11:15:00 23.6 C 83 % 20.54 C
Sensor: Nr:Datum:Temp:Feuchte:Taupunkt:
Aussen-T/F 1001 12-08-2020 11:20:00 24.1 C 83 % 21.03 C
1002 12-08-2020 11:25:00 24.4 C 80 % 20.72 C
1003 12-08-2020 11:30:00 24.6 C 78 % 20.51 C
1004 12-08-2020 11:35:00 24.9 C 75 % 20.16 C
1005 12-08-2020 11:40:00 25.2 C 76 % 20.67 C
1006 12-08-2020 11:45:00 25.4 C 74 % 20.43 C
1007 12-08-2020 11:50:00 25.8 C 73 % 20.59 C
1008 12-08-2020 11:55:00 25.9 C 71 % 20.24 C
1009 12-08-2020 12:00:00 26.2 C 70 % 20.29 C
1010 12-08-2020 12:05:00 26.4 C 69 % 20.25 C
1011 12-08-2020 12:10:00 26.6 C 69 % 20.44 C
1012 12-08-2020 12:15:00 26.7 C 69 % 20.54 C
1013 12-08-2020 12:20:00 26.8 C 70 % 20.87 C
1014 12-08-2020 12:25:00 26.9 C 68 % 20.49 C
1015 12-08-2020 12:30:00 27 C 67 % 20.35 C
1016 12-08-2020 12:35:00 27.2 C 67 % 20.54 C
1017 12-08-2020 12:40:00 27.3 C 66 % 20.39 C
1018 12-08-2020 12:45:00 27.5 C 65 % 20.33 C
1019 12-08-2020 12:50:00 27.7 C 64 % 20.27 C
1020 12-08-2020 12:55:00 27.9 C 65 % 20.71 C
1021 12-08-2020 13:00:00 28.1 C 65 % 20.9 C
1022 12-08-2020 13:05:00 28.2 C 63 % 20.48 C
1023 12-08-2020 13:10:00 28.5 C 64 % 21.02 C
1024 12-08-2020 13:15:00 28.7 C 62 % 20.69 C
1025 12-08-2020 13:20:00 28.8 C 61 % 20.52 C
Sensor: Nr:Datum:Temp:Feuchte:Taupunkt:
Aussen-T/F 1026 12-08-2020 13:25:00 28.8 C 61 % 20.52 C
1027 12-08-2020 13:30:00 29 C 61 % 20.71 C
1028 12-08-2020 13:35:00 29.2 C 60 % 20.63 C
1029 12-08-2020 13:40:00 29.5 C 61 % 21.18 C
1030 12-08-2020 13:45:00 29.7 C 59 % 20.83 C
1031 12-08-2020 13:50:00 29.8 C 58 % 20.64 C
1032 12-08-2020 13:55:00 29.9 C 58 % 20.74 C
1033 12-08-2020 14:00:00 30.1 C 57 % 20.64 C
1034 12-08-2020 14:05:00 30.2 C 58 % 21.02 C
1035 12-08-2020 14:10:00 30.2 C 57 % 20.73 C
1036 12-08-2020 14:15:00 30.3 C 58 % 21.11 C
1037 12-08-2020 14:20:00 30.6 C 57 % 21.1 C
1038 12-08-2020 14:25:00 30.7 C 58 % 21.48 C
1039 12-08-2020 14:30:00 30.9 C 55 % 20.8 C
1040 12-08-2020 14:35:00 31.1 C 54 % 20.69 C
1041 12-08-2020 14:40:00 31.2 C 54 % 20.78 C
1042 12-08-2020 14:45:00 31.4 C 53 % 20.66 C
1043 12-08-2020 14:50:00 31.6 C 52 % 20.54 C
1044 12-08-2020 14:55:00 31.8 C 51 % 20.41 C
1045 12-08-2020 15:00:00 32.1 C 52 % 21 C
1046 12-08-2020 15:05:00 32.3 C 50 % 20.54 C
1047 12-08-2020 15:10:00 32.4 C 48 % 19.97 C
1048 12-08-2020 15:15:00 32.6 C 48 % 20.15 C
1049 12-08-2020 15:20:00 32.8 C 47 % 20 C
1050 12-08-2020 15:25:00 33.1 C 46 % 19.92 C
Sensor: Nr:Datum:Temp:Feuchte:Taupunkt:
Aussen-T/F 1051 12-08-2020 15:30:00 33.2 C 44 % 19.29 C
1052 12-08-2020 15:35:00 33.2 C 44 % 19.29 C
1053 12-08-2020 15:40:00 33.4 C 43 % 19.11 C
1054 12-08-2020 15:45:00 33.8 C 44 % 19.83 C
1055 12-08-2020 15:50:00 34 C 43 % 19.64 C
1056 12-08-2020 15:55:00 34.3 C 42 % 19.53 C
1057 12-08-2020 16:00:00 34.6 C 44 % 20.55 C
1058 12-08-2020 16:05:00 34.7 C 40 % 19.11 C
1059 12-08-2020 16:10:00 34.6 C 41 % 19.41 C
1060 12-08-2020 16:15:00 34.4 C 42 % 19.62 C
1061 12-08-2020 16:20:00 34.6 C 43 % 20.18 C
1062 12-08-2020 16:25:00 34.8 C 41 % 19.59 C
1063 12-08-2020 16:30:00 34.9 C 40 % 19.28 C
1064 12-08-2020 16:35:00 35.2 C 40 % 19.55 C
1065 12-08-2020 16:40:00 35.3 C 39 % 19.23 C
1066 12-08-2020 16:45:00 35.1 C 39 % 19.05 C
1067 12-08-2020 16:50:00 34.9 C 42 % 20.07 C
1068 12-08-2020 16:55:00 34.7 C 40 % 19.11 C
1069 12-08-2020 17:00:00 34.3 C 43 % 19.91 C
1070 12-08-2020 17:05:00 34.1 C 48 % 21.52 C
1071 12-08-2020 17:10:00 33.7 C 53 % 22.78 C
1072 12-08-2020 17:15:00 33.2 C 55 % 22.93 C
1073 12-08-2020 17:20:00 32.7 C 54 % 22.17 C
1074 12-08-2020 17:25:00 32.2 C 56 % 22.3 C
1075 12-08-2020 17:30:00 31.7 C 57 % 22.13 C
Sensor: Nr:Datum:Temp:Feuchte:Taupunkt:
Aussen-T/F 1076 12-08-2020 17:35:00 31.2 C 58 % 21.95 C
1077 12-08-2020 17:40:00 30.8 C 59 % 21.85 C
1078 12-08-2020 17:45:00 30.3 C 60 % 21.66 C
1079 12-08-2020 17:50:00 29.9 C 61 % 21.56 C
1080 12-08-2020 17:55:00 29.6 C 54 % 19.3 C
1081 12-08-2020 18:00:00 29.1 C 52 % 18.24 C
1082 12-08-2020 18:05:00 28.6 C 53 % 18.08 C
1083 12-08-2020 18:10:00 28.1 C 54 % 17.92 C
1084 12-08-2020 18:15:00 27.6 C 56 % 18.03 C
1085 12-08-2020 18:20:00 27.3 C 58 % 18.31 C
1086 12-08-2020 18:25:00 26.9 C 60 % 18.48 C
1087 12-08-2020 18:30:00 26.6 C 61 % 18.46 C
1088 12-08-2020 18:35:00 26.4 C 61 % 18.27 C
1089 12-08-2020 18:40:00 26.3 C 64 % 18.94 C
1090 12-08-2020 18:45:00 26.1 C 66 % 19.25 C
1091 12-08-2020 18:50:00 25.9 C 66 % 19.06 C
1092 12-08-2020 18:55:00 25.9 C 70 % 20.01 C
1093 12-08-2020 19:00:00 25.7 C 73 % 20.49 C
1094 12-08-2020 19:05:00 25.2 C 73 % 20.01 C
1095 12-08-2020 19:10:00 24.5 C 76 % 19.99 C
1096 12-08-2020 19:15:00 24.1 C 79 % 20.23 C
1097 12-08-2020 19:20:00 23.7 C 83 % 20.64 C
1098 12-08-2020 19:25:00 23.3 C 85 % 20.63 C
1099 12-08-2020 19:30:00 23 C 86 % 20.53 C
1100 12-08-2020 19:35:00 22.8 C 87 % 20.52 C
Sensor: Nr:Datum:Temp:Feuchte:Taupunkt:
Aussen-T/F 1101 12-08-2020 19:40:00 22.6 C 88 % 20.51 C
1102 12-08-2020 19:45:00 22.3 C 88 % 20.21 C
1103 12-08-2020 19:50:00 22.1 C 89 % 20.2 C
1104 12-08-2020 19:55:00 21.9 C 90 % 20.18 C
1105 12-08-2020 20:00:00 21.8 C 90 % 20.09 C
1106 12-08-2020 20:05:00 21.7 C 90 % 19.99 C
1107 12-08-2020 20:10:00 21.7 C 91 % 20.17 C
1108 12-08-2020 20:15:00 21.6 C 91 % 20.07 C
1109 12-08-2020 20:20:00 21.5 C 91 % 19.97 C
1110 12-08-2020 20:25:00 21.4 C 92 % 20.05 C
1111 12-08-2020 20:30:00 21.3 C 91 % 19.77 C
1112 12-08-2020 20:35:00 21.2 C 92 % 19.85 C
1113 12-08-2020 20:40:00 21.2 C 92 % 19.85 C
1114 12-08-2020 20:45:00 21.1 C 92 % 19.75 C
1115 12-08-2020 20:50:00 21.1 C 92 % 19.75 C
1116 12-08-2020 20:55:00 21 C 92 % 19.65 C
1117 12-08-2020 21:00:00 20.9 C 93 % 19.72 C
1118 12-08-2020 21:05:00 20.9 C 93 % 19.72 C
1119 12-08-2020 21:10:00 20.8 C 93 % 19.63 C
1120 12-08-2020 21:15:00 20.8 C 93 % 19.63 C
1121 12-08-2020 21:20:00 20.7 C 93 % 19.53 C
1122 12-08-2020 21:25:00 20.7 C 93 % 19.53 C
1123 12-08-2020 21:30:00 20.7 C 93 % 19.53 C
1124 12-08-2020 21:35:00 20.7 C 94 % 19.7 C
1125 12-08-2020 21:40:00 20.7 C 94 % 19.7 C
Sensor: Nr:Datum:Temp:Feuchte:Taupunkt:
Aussen-T/F 1126 12-08-2020 21:45:00 20.7 C 94 % 19.7 C
1127 12-08-2020 21:50:00 20.6 C 93 % 19.43 C
1128 12-08-2020 21:55:00 20.6 C 94 % 19.6 C
1129 12-08-2020 22:00:00 20.5 C 94 % 19.5 C
1130 12-08-2020 22:05:00 20.5 C 94 % 19.5 C
1131 12-08-2020 22:10:00 20.5 C 94 % 19.5 C
1132 12-08-2020 22:15:00 20.5 C 94 % 19.5 C
1133 12-08-2020 22:20:00 20.4 C 94 % 19.4 C
1134 12-08-2020 22:25:00 20.5 C 94 % 19.5 C
1135 12-08-2020 22:30:00 20.5 C 94 % 19.5 C
1136 12-08-2020 22:35:00 20.5 C 94 % 19.5 C
1137 12-08-2020 22:40:00 20.4 C 94 % 19.4 C
1138 12-08-2020 22:45:00 20.4 C 94 % 19.4 C
1139 12-08-2020 22:50:00 20.4 C 94 % 19.4 C
1140 12-08-2020 22:55:00 20.3 C 94 % 19.3 C
1141 12-08-2020 23:00:00 20.2 C 93 % 19.03 C
1142 12-08-2020 23:05:00 20.1 C 94 % 19.1 C
1143 12-08-2020 23:10:00 19.9 C 93 % 18.73 C
1144 12-08-2020 23:15:00 19.9 C 93 % 18.73 C
1145 12-08-2020 23:20:00 19.8 C 94 % 18.81 C
1146 12-08-2020 23:25:00 19.8 C 94 % 18.81 C
1147 12-08-2020 23:30:00 19.7 C 94 % 18.71 C
1148 12-08-2020 23:35:00 19.7 C 94 % 18.71 C
1149 12-08-2020 23:40:00 19.7 C 94 % 18.71 C
1150 12-08-2020 23:45:00 19.7 C 94 % 18.71 C
Sensor: Nr:Datum:Temp:Feuchte:Taupunkt:
Aussen-T/F 1151 12-08-2020 23:50:00 19.8 C 94 % 18.81 C
1152 12-08-2020 23:55:00 19.8 C 95 % 18.98 C
1153 13-08-2020 00:00:00 19.9 C 95 % 19.07 C
1154 13-08-2020 00:05:00 19.9 C 95 % 19.07 C
1155 13-08-2020 00:10:00 19.9 C 94 % 18.91 C
1156 13-08-2020 00:15:00 19.9 C 95 % 19.07 C
1157 13-08-2020 00:20:00 19.9 C 95 % 19.07 C
1158 13-08-2020 00:25:00 20 C 95 % 19.17 C
1159 13-08-2020 00:30:00 20 C 95 % 19.17 C
1160 13-08-2020 00:35:00 20 C 95 % 19.17 C
1161 13-08-2020 00:40:00 19.9 C 95 % 19.07 C
1162 13-08-2020 00:45:00 19.9 C 95 % 19.07 C
1163 13-08-2020 00:50:00 19.9 C 94 % 18.91 C
1164 13-08-2020 00:55:00 19.9 C 94 % 18.91 C
1165 13-08-2020 01:00:00 19.9 C 95 % 19.07 C
1166 13-08-2020 01:05:00 19.9 C 95 % 19.07 C
1167 13-08-2020 01:10:00 19.8 C 94 % 18.81 C
1168 13-08-2020 01:15:00 19.8 C 95 % 18.98 C
1169 13-08-2020 01:20:00 19.8 C 94 % 18.81 C
1170 13-08-2020 01:25:00 19.8 C 94 % 18.81 C
1171 13-08-2020 01:30:00 19.7 C 94 % 18.71 C
1172 13-08-2020 01:35:00 19.7 C 94 % 18.71 C
1173 13-08-2020 01:40:00 19.7 C 95 % 18.88 C
1174 13-08-2020 01:45:00 19.7 C 95 % 18.88 C
1175 13-08-2020 01:50:00 19.7 C 94 % 18.71 C
Sensor: Nr:Datum:Temp:Feuchte:Taupunkt:
Aussen-T/F 1176 13-08-2020 01:55:00 19.6 C 94 % 18.61 C
1177 13-08-2020 02:00:00 19.6 C 94 % 18.61 C
1178 13-08-2020 02:05:00 19.6 C 94 % 18.61 C
1179 13-08-2020 02:10:00 19.6 C 94 % 18.61 C
1180 13-08-2020 02:15:00 19.5 C 94 % 18.51 C
1181 13-08-2020 02:20:00 19.4 C 94 % 18.41 C
1182 13-08-2020 02:25:00 19.4 C 95 % 18.58 C
1183 13-08-2020 02:30:00 19.4 C 94 % 18.41 C
1184 13-08-2020 02:35:00 19.3 C 94 % 18.31 C
1185 13-08-2020 02:40:00 19.2 C 94 % 18.21 C
1186 13-08-2020 02:45:00 19.2 C 94 % 18.21 C
1187 13-08-2020 02:50:00 19.2 C 94 % 18.21 C
1188 13-08-2020 02:55:00 19.2 C 94 % 18.21 C
1189 13-08-2020 03:00:00 19.2 C 95 % 18.38 C
1190 13-08-2020 03:05:00 19.1 C 95 % 18.28 C
1191 13-08-2020 03:10:00 19.1 C 95 % 18.28 C
1192 13-08-2020 03:15:00 19.1 C 95 % 18.28 C
1193 13-08-2020 03:20:00 19.1 C 95 % 18.28 C
1194 13-08-2020 03:25:00 19.1 C 95 % 18.28 C
1195 13-08-2020 03:30:00 19 C 95 % 18.18 C
1196 13-08-2020 03:35:00 19 C 95 % 18.18 C
1197 13-08-2020 03:40:00 18.9 C 95 % 18.08 C
1198 13-08-2020 03:45:00 18.9 C 95 % 18.08 C
1199 13-08-2020 03:50:00 18.9 C 95 % 18.08 C
1200 13-08-2020 03:55:00 18.9 C 95 % 18.08 C
Sensor: Nr:Datum:Temp:Feuchte:Taupunkt:
Aussen-T/F 1201 13-08-2020 04:00:00 18.9 C 95 % 18.08 C
1202 13-08-2020 04:05:00 18.9 C 95 % 18.08 C
1203 13-08-2020 04:10:00 18.9 C 95 % 18.08 C
1204 13-08-2020 04:15:00 18.9 C 95 % 18.08 C
1205 13-08-2020 04:20:00 18.9 C 95 % 18.08 C
1206 13-08-2020 04:25:00 18.8 C 95 % 17.98 C
1207 13-08-2020 04:30:00 18.9 C 95 % 18.08 C
1208 13-08-2020 04:35:00 18.9 C 95 % 18.08 C
1209 13-08-2020 04:40:00 19 C 96 % 18.35 C
1210 13-08-2020 04:45:00 19.1 C 96 % 18.45 C
1211 13-08-2020 04:50:00 19.3 C 96 % 18.65 C
1212 13-08-2020 04:55:00 19.4 C 96 % 18.75 C
1213 13-08-2020 05:00:00 19.6 C 96 % 18.94 C
1214 13-08-2020 05:05:00 19.7 C 96 % 19.04 C
1215 13-08-2020 05:10:00 19.7 C 96 % 19.04 C
1216 13-08-2020 05:15:00 19.7 C 96 % 19.04 C
1217 13-08-2020 05:20:00 19.7 C 96 % 19.04 C
1218 13-08-2020 05:25:00 19.8 C 96 % 19.14 C
1219 13-08-2020 05:30:00 19.8 C 96 % 19.14 C
1220 13-08-2020 05:35:00 19.8 C 96 % 19.14 C
1221 13-08-2020 05:40:00 19.8 C 96 % 19.14 C
1222 13-08-2020 05:45:00 19.9 C 96 % 19.24 C
1223 13-08-2020 05:50:00 19.9 C 96 % 19.24 C
1224 13-08-2020 05:55:00 19.9 C 96 % 19.24 C
1225 13-08-2020 06:00:00 19.9 C 96 % 19.24 C
Sensor: Nr:Datum:Temp:Feuchte:Taupunkt:
Aussen-T/F 1226 13-08-2020 06:05:00 19.9 C 96 % 19.24 C
1227 13-08-2020 06:10:00 19.9 C 96 % 19.24 C
1228 13-08-2020 06:15:00 19.9 C 96 % 19.24 C
1229 13-08-2020 06:20:00 19.9 C 96 % 19.24 C
1230 13-08-2020 06:25:00 19.9 C 96 % 19.24 C
1231 13-08-2020 06:30:00 19.8 C 96 % 19.14 C
1232 13-08-2020 06:35:00 19.8 C 96 % 19.14 C
1233 13-08-2020 06:40:00 19.8 C 96 % 19.14 C
1234 13-08-2020 06:45:00 19.8 C 96 % 19.14 C
1235 13-08-2020 06:50:00 19.7 C 96 % 19.04 C
1236 13-08-2020 06:55:00 19.7 C 96 % 19.04 C
1237 13-08-2020 07:00:00 19.7 C 96 % 19.04 C
1238 13-08-2020 07:05:00 19.7 C 96 % 19.04 C
1239 13-08-2020 07:10:00 19.7 C 96 % 19.04 C
1240 13-08-2020 07:15:00 19.7 C 96 % 19.04 C
1241 13-08-2020 07:20:00 19.6 C 96 % 18.94 C
1242 13-08-2020 07:25:00 19.6 C 96 % 18.94 C
1243 13-08-2020 07:30:00 19.6 C 96 % 18.94 C
1244 13-08-2020 07:35:00 19.6 C 96 % 18.94 C
1245 13-08-2020 07:40:00 19.6 C 96 % 18.94 C
1246 13-08-2020 07:45:00 19.7 C 96 % 19.04 C
1247 13-08-2020 07:50:00 19.7 C 97 % 19.21 C
1248 13-08-2020 07:55:00 19.7 C 97 % 19.21 C
1249 13-08-2020 08:00:00 19.8 C 97 % 19.31 C
1250 13-08-2020 08:05:00 19.8 C 97 % 19.31 C
Sensor: Nr:Datum:Temp:Feuchte:Taupunkt:
Aussen-T/F 1251 13-08-2020 08:10:00 19.8 C 97 % 19.31 C
1252 13-08-2020 08:15:00 19.8 C 97 % 19.31 C
1253 13-08-2020 08:20:00 19.8 C 97 % 19.31 C
1254 13-08-2020 08:25:00 19.8 C 97 % 19.31 C
1255 13-08-2020 08:30:00 19.8 C 97 % 19.31 C
1256 13-08-2020 08:35:00 19.8 C 97 % 19.31 C
1257 13-08-2020 08:40:00 19.8 C 97 % 19.31 C
1258 13-08-2020 08:45:00 19.8 C 97 % 19.31 C
1259 13-08-2020 08:50:00 19.8 C 97 % 19.31 C
1260 13-08-2020 08:55:00 19.9 C 97 % 19.41 C
1261 13-08-2020 09:00:00 19.9 C 97 % 19.41 C
1262 13-08-2020 09:05:00 20 C 97 % 19.51 C
1263 13-08-2020 09:10:00 20.1 C 97 % 19.61 C
1264 13-08-2020 09:15:00 20.2 C 97 % 19.71 C
1265 13-08-2020 09:20:00 20.4 C 97 % 19.91 C
1266 13-08-2020 09:25:00 20.6 C 97 % 20.11 C
1267 13-08-2020 09:30:00 20.6 C 97 % 20.11 C
1268 13-08-2020 09:35:00 20.7 C 97 % 20.21 C
1269 13-08-2020 09:40:00 20.8 C 97 % 20.31 C
1270 13-08-2020 09:45:00 20.9 C 97 % 20.41 C
1271 13-08-2020 09:50:00 21 C 97 % 20.51 C
1272 13-08-2020 09:55:00 21.1 C 97 % 20.6 C
1273 13-08-2020 10:00:00 21.2 C 97 % 20.7 C
1274 13-08-2020 10:05:00 21.3 C 97 % 20.8 C
1275 13-08-2020 10:10:00 21.3 C 97 % 20.8 C
Sensor: Nr:Datum:Temp:Feuchte:Taupunkt:
Aussen-T/F 1276 13-08-2020 10:15:00 21.4 C 97 % 20.9 C
1277 13-08-2020 10:20:00 21.5 C 97 % 21 C
1278 13-08-2020 10:25:00 21.6 C 97 % 21.1 C
1279 13-08-2020 10:30:00 21.7 C 97 % 21.2 C
1280 13-08-2020 10:35:00 21.8 C 97 % 21.3 C
1281 13-08-2020 10:40:00 21.8 C 97 % 21.3 C
1282 13-08-2020 10:45:00 21.9 C 97 % 21.4 C
1283 13-08-2020 10:50:00 22 C 97 % 21.5 C
1284 13-08-2020 10:55:00 22.2 C 97 % 21.7 C
1285 13-08-2020 11:00:00 22.4 C 97 % 21.9 C
1286 13-08-2020 11:05:00 22.5 C 98 % 22.17 C
1287 13-08-2020 11:10:00 22.6 C 97 % 22.1 C
1288 13-08-2020 11:15:00 22.7 C 97 % 22.2 C
1289 13-08-2020 11:20:00 22.8 C 97 % 22.3 C
1290 13-08-2020 11:25:00 22.9 C 97 % 22.4 C
1291 13-08-2020 11:30:00 23.2 C 97 % 22.7 C
1292 13-08-2020 11:35:00 23.2 C 97 % 22.7 C
1293 13-08-2020 11:40:00 23.1 C 96 % 22.43 C
1294 13-08-2020 11:45:00 23.3 C 96 % 22.63 C
1295 13-08-2020 11:50:00 23.7 C 96 % 23.02 C
1296 13-08-2020 11:55:00 23.9 C 96 % 23.22 C
1297 13-08-2020 12:00:00 23.8 C 94 % 22.77 C
1298 13-08-2020 12:05:00 23.9 C 92 % 22.52 C
1299 13-08-2020 12:10:00 24.1 C 91 % 22.54 C
1300 13-08-2020 12:15:00 24.3 C 89 % 22.37 C
Sensor: Nr:Datum:Temp:Feuchte:Taupunkt:
Aussen-T/F 1301 13-08-2020 12:20:00 24.7 C 91 % 23.13 C
1302 13-08-2020 12:25:00 24.8 C 88 % 22.67 C
1303 13-08-2020 12:30:00 25.2 C 82 % 21.91 C
1304 13-08-2020 12:35:00 25.5 C 81 % 22 C
1305 13-08-2020 12:40:00 25.8 C 77 % 21.46 C
1306 13-08-2020 12:45:00 26.2 C 75 % 21.41 C
1307 13-08-2020 12:50:00 26.5 C 74 % 21.48 C
1308 13-08-2020 12:55:00 26.8 C 74 % 21.77 C
1309 13-08-2020 13:00:00 26.9 C 73 % 21.65 C
1310 13-08-2020 13:05:00 27.1 C 73 % 21.84 C
1311 13-08-2020 13:10:00 27.2 C 71 % 21.48 C
1312 13-08-2020 13:15:00 27.4 C 72 % 21.9 C
1313 13-08-2020 13:20:00 27.6 C 71 % 21.86 C
1314 13-08-2020 13:25:00 27.8 C 72 % 22.28 C
1315 13-08-2020 13:30:00 28.1 C 71 % 22.34 C
1316 13-08-2020 13:35:00 28.2 C 69 % 21.97 C
1317 13-08-2020 13:40:00 28.3 C 70 % 22.3 C
1318 13-08-2020 13:45:00 28.3 C 68 % 21.82 C
1319 13-08-2020 13:50:00 28.5 C 69 % 22.25 C
1320 13-08-2020 13:55:00 28.6 C 69 % 22.35 C
1321 13-08-2020 14:00:00 28.8 C 66 % 21.81 C
1322 13-08-2020 14:05:00 29.1 C 63 % 21.33 C
1323 13-08-2020 14:10:00 29.3 C 64 % 21.78 C
1324 13-08-2020 14:15:00 29.7 C 63 % 21.9 C
1325 13-08-2020 14:20:00 29.9 C 59 % 21.01 C
Sensor: Nr:Datum:Temp:Feuchte:Taupunkt:
Aussen-T/F 1326 13-08-2020 14:25:00 30.1 C 55 % 20.06 C
1327 13-08-2020 14:30:00 30.2 C 54 % 19.86 C
1328 13-08-2020 14:35:00 30.1 C 53 % 19.46 C
1329 13-08-2020 14:40:00 29.9 C 52 % 18.97 C
1330 13-08-2020 14:45:00 29.8 C 52 % 18.88 C
1331 13-08-2020 14:50:00 29.9 C 51 % 18.66 C
1332 13-08-2020 14:55:00 29.9 C 50 % 18.35 C
1333 13-08-2020 15:00:00 29.9 C 52 % 18.97 C
1334 13-08-2020 15:05:00 30 C 51 % 18.75 C
1335 13-08-2020 15:10:00 30.1 C 51 % 18.85 C
1336 13-08-2020 15:15:00 30 C 50 % 18.44 C
1337 13-08-2020 15:20:00 29.8 C 51 % 18.57 C
1338 13-08-2020 15:25:00 29.6 C 52 % 18.7 C
1339 13-08-2020 15:30:00 29.3 C 53 % 18.73 C
1340 13-08-2020 15:35:00 29.2 C 52 % 18.33 C
1341 13-08-2020 15:40:00 29.1 C 53 % 18.54 C
1342 13-08-2020 15:45:00 28.9 C 56 % 19.24 C
1343 13-08-2020 15:50:00 28.8 C 55 % 18.86 C
1344 13-08-2020 15:55:00 28.8 C 55 % 18.86 C
1345 13-08-2020 16:00:00 28.7 C 57 % 19.34 C
1346 13-08-2020 16:05:00 28.7 C 55 % 18.76 C
1347 13-08-2020 16:10:00 28.7 C 54 % 18.47 C
1348 13-08-2020 16:15:00 28.6 C 55 % 18.67 C
1349 13-08-2020 16:20:00 28.4 C 57 % 19.06 C
1350 13-08-2020 16:25:00 28.3 C 57 % 18.96 C
Sensor: Nr:Datum:Temp:Feuchte:Taupunkt:
Aussen-T/F 1351 13-08-2020 16:30:00 28.3 C 56 % 18.68 C
1352 13-08-2020 16:35:00 28.3 C 57 % 18.96 C
1353 13-08-2020 16:40:00 28.3 C 57 % 18.96 C
1354 13-08-2020 16:45:00 28.4 C 57 % 19.06 C
1355 13-08-2020 16:50:00 28.3 C 57 % 18.96 C
1356 13-08-2020 16:55:00 28.3 C 57 % 18.96 C
1357 13-08-2020 17:00:00 28.2 C 59 % 19.42 C
1358 13-08-2020 17:05:00 28.1 C 60 % 19.6 C
1359 13-08-2020 17:10:00 28.1 C 60 % 19.6 C
1360 13-08-2020 17:15:00 28.1 C 60 % 19.6 C
1361 13-08-2020 17:20:00 28.1 C 62 % 20.13 C
1362 13-08-2020 17:25:00 28.2 C 59 % 19.42 C
1363 13-08-2020 17:30:00 28.4 C 61 % 20.15 C
1364 13-08-2020 17:35:00 28.7 C 58 % 19.62 C
1365 13-08-2020 17:40:00 28.7 C 58 % 19.62 C
1366 13-08-2020 17:45:00 28.8 C 59 % 19.99 C
1367 13-08-2020 17:50:00 28.9 C 58 % 19.8 C
1368 13-08-2020 17:55:00 29.2 C 56 % 19.52 C
1369 13-08-2020 18:00:00 29.4 C 55 % 19.41 C
1370 13-08-2020 18:05:00 29.6 C 55 % 19.6 C
1371 13-08-2020 18:10:00 29.6 C 57 % 20.17 C
1372 13-08-2020 18:15:00 29.5 C 55 % 19.5 C
1373 13-08-2020 18:20:00 29.2 C 54 % 18.93 C
1374 13-08-2020 18:25:00 28.9 C 60 % 20.35 C
1375 13-08-2020 18:30:00 28.7 C 60 % 20.16 C
Sensor: Nr:Datum:Temp:Feuchte:Taupunkt:
Aussen-T/F 1376 13-08-2020 18:35:00 28.6 C 66 % 21.62 C
1377 13-08-2020 18:40:00 28.4 C 67 % 21.68 C
1378 13-08-2020 18:45:00 28.3 C 68 % 21.82 C
1379 13-08-2020 18:50:00 28.1 C 69 % 21.87 C
1380 13-08-2020 18:55:00 28 C 71 % 22.25 C
1381 13-08-2020 19:00:00 27.9 C 70 % 21.92 C
1382 13-08-2020 19:05:00 27.9 C 69 % 21.68 C
1383 13-08-2020 19:10:00 27.9 C 65 % 20.71 C
1384 13-08-2020 19:15:00 27.9 C 69 % 21.68 C
1385 13-08-2020 19:20:00 27.9 C 70 % 21.92 C
1386 13-08-2020 19:25:00 27.8 C 70 % 21.82 C
1387 13-08-2020 19:30:00 27.7 C 71 % 21.96 C
1388 13-08-2020 19:35:00 27.6 C 71 % 21.86 C
1389 13-08-2020 19:40:00 27.5 C 71 % 21.77 C
1390 13-08-2020 19:45:00 27.3 C 71 % 21.58 C
1391 13-08-2020 19:50:00 27.1 C 72 % 21.61 C
1392 13-08-2020 19:55:00 26.8 C 73 % 21.55 C
1393 13-08-2020 20:00:00 26.6 C 73 % 21.36 C
1394 13-08-2020 20:05:00 26.3 C 74 % 21.29 C
1395 13-08-2020 20:10:00 26.2 C 74 % 21.2 C
1396 13-08-2020 20:15:00 25.9 C 75 % 21.13 C
1397 13-08-2020 20:20:00 25.7 C 76 % 21.15 C
1398 13-08-2020 20:25:00 25.5 C 76 % 20.95 C
1399 13-08-2020 20:30:00 25.2 C 77 % 20.88 C
1400 13-08-2020 20:35:00 24.9 C 78 % 20.8 C
Sensor: Nr:Datum:Temp:Feuchte:Taupunkt:
Aussen-T/F 1401 13-08-2020 20:40:00 24.6 C 79 % 20.71 C
1402 13-08-2020 20:45:00 24.3 C 80 % 20.63 C
1403 13-08-2020 20:50:00 24.1 C 81 % 20.63 C
1404 13-08-2020 20:55:00 23.8 C 81 % 20.34 C
1405 13-08-2020 21:00:00 23.6 C 81 % 20.15 C
1406 13-08-2020 21:05:00 23.4 C 82 % 20.15 C
1407 13-08-2020 21:10:00 23.2 C 82 % 19.95 C
1408 13-08-2020 21:15:00 23 C 82 % 19.76 C
1409 13-08-2020 21:20:00 22.8 C 83 % 19.76 C
1410 13-08-2020 21:25:00 22.7 C 83 % 19.66 C
1411 13-08-2020 21:30:00 22.7 C 84 % 19.86 C
1412 13-08-2020 21:35:00 22.6 C 84 % 19.76 C
1413 13-08-2020 21:40:00 22.6 C 84 % 19.76 C
1414 13-08-2020 21:45:00 22.6 C 84 % 19.76 C
1415 13-08-2020 21:50:00 22.6 C 84 % 19.76 C
1416 13-08-2020 21:55:00 22.6 C 84 % 19.76 C
1417 13-08-2020 22:00:00 22.6 C 84 % 19.76 C
1418 13-08-2020 22:05:00 22.7 C 85 % 20.05 C
1419 13-08-2020 22:10:00 22.7 C 85 % 20.05 C
1420 13-08-2020 22:15:00 22.7 C 84 % 19.86 C
1421 13-08-2020 22:20:00 22.6 C 84 % 19.76 C
1422 13-08-2020 22:25:00 22.6 C 84 % 19.76 C
1423 13-08-2020 22:30:00 22.6 C 84 % 19.76 C
1424 13-08-2020 22:35:00 22.5 C 84 % 19.66 C
1425 13-08-2020 22:40:00 22.5 C 84 % 19.66 C
Sensor: Nr:Datum:Temp:Feuchte:Taupunkt:
Aussen-T/F 1426 13-08-2020 22:45:00 22.5 C 83 % 19.47 C
1427 13-08-2020 22:50:00 22.6 C 83 % 19.56 C
1428 13-08-2020 22:55:00 22.6 C 83 % 19.56 C
1429 13-08-2020 23:00:00 22.6 C 82 % 19.37 C
1430 13-08-2020 23:05:00 22.6 C 83 % 19.56 C
1431 13-08-2020 23:10:00 22.7 C 83 % 19.66 C
1432 13-08-2020 23:15:00 22.7 C 83 % 19.66 C
1433 13-08-2020 23:20:00 22.6 C 83 % 19.56 C
1434 13-08-2020 23:25:00 22.6 C 83 % 19.56 C
1435 13-08-2020 23:30:00 22.6 C 83 % 19.56 C
1436 13-08-2020 23:35:00 22.7 C 84 % 19.86 C
1437 13-08-2020 23:40:00 22.6 C 84 % 19.76 C
1438 13-08-2020 23:45:00 22.6 C 84 % 19.76 C
1439 13-08-2020 23:50:00 22.6 C 84 % 19.76 C
1440 13-08-2020 23:55:00 22.5 C 84 % 19.66 C

Legende:
   Min
   Max


Maximal/Minimal-Werte vom 09.08.2020 - 13.08.2020

Sensor Min Max Avg
Temp
(Aussen-T/F)
18.4 °C
09-08-2020  06:05:00
36.1 °C
11-08-2020  16:40:00
24.56 °C
Feuchte
(Aussen-T/F)
32 %
09-08-2020  14:25:00
98 %
12-08-2020  08:30:00
73.66 %
Taupunkt
(Aussen-T/F)
14.89 C
09-08-2020  06:05:00
23.22 C
13-08-2020  11:55:00
18.81 C

Die Daten stammen von einer Davis Vantage Pro 2 Wetter-Station und werden unter Linux mit der Software wview2wettercgi und aufbereitet. Alle Angaben erfolgen ohne Gewähr für ihre Vollständigkeit oder Richtigkeit.
Kontakt: Rainer Krienke krienke@uni-koblenz.de . Meine Webseiten an der Uni Koblenz oder privat.
Version: $Revision: 0.78 $